| time (UTC) | temp F | wind direction | speed MPH | gust MPH | rain 1hr in | rain 24hr in | rain mn in | humidity % | barometer mb |
| 20260904052532 | 71 | 145 | 0.0 | 0.0 | 0.05 | 0.23 | 0.10 | 94 | 1012.3 |
| 20260904052212 | 71 | 145 | 0.0 | 0.0 | 0.06 | 0.23 | 0.10 | 94 | 1012.5 |
| 20260904052109 | 71 | 145 | 0.0 | 0.0 | 0.08 | 0.23 | 0.10 | 94 | 1012.6 |
| 20260904052002 | 71 | 145 | 0.0 | 0.0 | 0.09 | 0.23 | 0.10 | 94 | 1012.6 |
| 20260904051900 | 71 | 145 | 0.0 | 0.0 | 0.12 | 0.23 | 0.10 | 94 | 1012.7 |
| 20260904051535 | 71 | 145 | 0.0 | 1.0 | 0.13 | 0.23 | 0.10 | 94 | 1013.0 |
| 20260904051428 | 71 | 145 | 0.0 | 1.0 | 0.13 | 0.23 | 0.10 | 94 | 1013.1 |
| 20260904051321 | 71 | 145 | 0.0 | 1.0 | 0.10 | 0.23 | 0.09 | 94 | 1013.3 |
| 20260904051218 | 71 | 145 | 0.0 | 1.0 | 0.10 | 0.23 | 0.09 | 94 | 1013.4 |
| 20260904051112 | 71 | 145 | 0.0 | 1.0 | 0.10 | 0.23 | 0.09 | 94 | 1013.4 |
| 20260904051004 | 71 | 145 | 0.0 | 1.0 | 0.10 | 0.22 | 0.09 | 94 | 1013.7 |
| 20260904050859 | 71 | 145 | 0.0 | 1.0 | 0.00 | 0.22 | 0.08 | 94 | 1013.7 |
| 20260904050757 | 71 | 145 | 0.0 | 1.0 | 0.00 | 0.22 | 0.08 | 94 | 1013.7 |
| 20260904050650 | 71 | 96 | 0.0 | 0.0 | 0.00 | 0.22 | 0.08 | 94 | 1013.8 |
| 20260904050547 | 71 | 96 | 0.0 | 0.0 | 0.00 | 0.22 | 0.08 | 94 | 1013.9 |
| 20260904050440 | 71 | 96 | 0.0 | 0.0 | 0.00 | 0.20 | 0.08 | 94 | 1013.9 |
| 20260904050335 | 71 | 96 | 0.0 | 0.0 | 0.00 | 0.20 | 0.06 | 94 | 1013.9 |
| 20260904050229 | 71 | 96 | 0.0 | 0.0 | 0.00 | 0.20 | 0.06 | 94 | 1014.1 |
| 20260904050126 | 71 | 96 | 0.0 | 0.0 | 0.00 | 0.20 | 0.06 | 94 | 1014.1 |
| 20260904050021 | 71 | 96 | 0.0 | 1.0 | 0.00 | 0.20 | 0.06 | 94 | 1014.1 |
| 20260904045918 | 71 | 96 | 0.0 | 1.0 | 0.04 | 0.20 | 0.06 | 94 | 1014.1 |
| 20260904045812 | 71 | 96 | 0.0 | 1.0 | 0.04 | 0.20 | 0.06 | 94 | 1014.2 |
| 20260904045707 | 72 | 96 | 0.0 | 1.0 | 0.04 | 0.20 | 0.06 | 94 | 1014.3 |
| 20260904045605 | 71 | 244 | 0.0 | 1.0 | 0.04 | 0.20 | 0.06 | 94 | 1014.5 |
| 20260904045501 | 72 | 244 | 0.0 | 1.0 | 0.05 | 0.20 | 0.06 | 94 | 1014.4 |
| 20260904045357 | 72 | 133 | 0.0 | 0.0 | 0.05 | 0.20 | 0.06 | 94 | 1014.2 |
| 20260904045032 | 72 | 133 | 0.0 | 0.0 | 0.08 | 0.20 | 0.06 | 94 | 1014.2 |
| 20260904044930 | 72 | 133 | 0.0 | 1.0 | 0.09 | 0.20 | 0.06 | 94 | 1014.3 |
| 20260904044822 | 72 | 133 | 0.0 | 1.0 | 0.10 | 0.20 | 0.06 | 94 | 1014.3 |
| 20260904044456 | 72 | 76 | 0.0 | 0.0 | 0.21 | 0.20 | 0.06 | 94 | 1014.5 |
| 20260904044129 | 72 | 76 | 0.0 | 3.0 | 0.36 | 0.18 | 0.06 | 94 | 1014.4 |
| 20260904044023 | 72 | 76 | 0.0 | 3.0 | 0.62 | 0.18 | 0.06 | 94 | 1014.4 |
| 20260904043919 | 72 | 76 | 0.0 | 3.0 | 0.84 | 0.16 | 0.05 | 94 | 1014.4 |
| 20260904043812 | 72 | 78 | 0.0 | 3.0 | 0.00 | 0.16 | 0.03 | 94 | 1014.5 |
| 20260904043707 | 72 | 95 | 0.0 | 3.0 | 0.00 | 0.16 | 0.02 | 94 | 1014.5 |
| 20260904043603 | 72 | 80 | 0.0 | 2.0 | 0.00 | 0.16 | 0.02 | 94 | 1014.9 |
| 20260904043457 | 72 | 345 | 0.0 | 2.0 | 0.00 | 0.16 | 0.02 | 94 | 1015.1 |
| 20260904043353 | 72 | 32 | 0.0 | 2.0 | 0.00 | 0.16 | 0.02 | 94 | 1015.0 |
| 20260904043249 | 72 | 254 | 0.0 | 2.0 | 0.00 | 0.16 | 0.02 | 94 | 1015.0 |
| 20260904043142 | 72 | 250 | 0.0 | 2.0 | 0.00 | 0.16 | 0.02 | 94 | 1014.8 |
| 20260904043035 | 72 | 101 | 0.0 | 2.0 | 0.00 | 0.16 | 0.02 | 94 | 1014.6 |
| 20260904042928 | 72 | 63 | 0.0 | 2.0 | 0.00 | 0.16 | 0.02 | 94 | 1014.7 |
| 20260904042824 | 72 | 80 | 0.0 | 2.0 | 0.00 | 0.16 | 0.02 | 94 | 1014.9 |
| 20260904042719 | 72 | 84 | 0.0 | 2.0 | 0.00 | 0.16 | 0.02 | 93 | 1015.0 |
| 20260904042613 | 72 | 186 | 0.0 | 2.0 | 0.00 | 0.16 | 0.02 | 93 | 1015.3 |
| 20260904042507 | 72 | 11 | 0.0 | 2.0 | 0.00 | 0.16 | 0.02 | 93 | 1015.3 |
| 20260904042405 | 72 | 297 | 0.0 | 2.0 | 0.00 | 0.16 | 0.02 | 93 | 1015.4 |
| 20260904042305 | 72 | 297 | 0.0 | 2.0 | 0.04 | 0.16 | 0.02 | 93 | 1015.4 |
| 20260904042155 | 72 | 61 | 0.0 | 2.0 | 0.04 | 0.16 | 0.02 | 93 | 1015.4 |
| 20260904042046 | 72 | 304 | 0.0 | 4.0 | 0.04 | 0.16 | 0.02 | 93 | 1015.3 |
| 20260904041719 | 72 | 284 | 0.0 | 4.0 | 0.06 | 0.16 | 0.02 | 92 | 1015.5 |
| 20260904041612 | 72 | 200 | 0.0 | 4.0 | 0.06 | 0.16 | 0.02 | 92 | 1015.4 |
| 20260904041506 | 73 | 300 | 0.0 | 4.0 | 0.06 | 0.16 | 0.02 | 92 | 1015.4 |
| 20260904041403 | 73 | 288 | 0.0 | 4.0 | 0.08 | 0.16 | 0.02 | 92 | 1015.4 |
| 20260904040825 | 73 | 336 | 1.0 | 6.0 | 0.09 | 0.13 | 0.02 | 91 | 1015.5 |
| 20260904040719 | 73 | 317 | 1.0 | 6.0 | 0.09 | 0.13 | 0.02 | 91 | 1015.5 |
| 20260904040614 | 73 | 316 | 1.0 | 6.0 | 0.10 | 0.13 | 0.01 | 91 | 1015.4 |
| 20260904040507 | 73 | 244 | 1.0 | 6.0 | 0.12 | 0.13 | 0.01 | 91 | 1015.4 |
| 20260904040401 | 74 | 19 | 1.0 | 6.0 | 0.15 | 0.13 | 0.01 | 91 | 1015.4 |
| 20260904040036 | 74 | 309 | 2.0 | 9.0 | 0.35 | 0.13 | 0.01 | 91 | 1015.4 |
| 20260904035933 | 74 | 21 | 2.0 | 9.0 | 0.32 | 0.13 | 0.13 | 91 | 1015.4 |
| 20260904035826 | 74 | 304 | 1.0 | 9.0 | 0.32 | 0.12 | 0.13 | 90 | 1015.3 |
| 20260904035505 | 75 | 122 | 1.0 | 9.0 | 0.25 | 0.10 | 0.10 | 89 | 1015.4 |
| 20260904035403 | 75 | 284 | 1.0 | 9.0 | 0.43 | 0.09 | 0.10 | 89 | 1015.5 |
| 20260904035256 | 76 | 263 | 1.0 | 9.0 | 0.52 | 0.09 | 0.10 | 89 | 1015.5 |
| 20260904035152 | 76 | 26 | 1.0 | 9.0 | 1.96 | 0.04 | 0.10 | 89 | 1015.5 |
| 20260904035048 | 76 | 9 | 1.0 | 9.0 | 2.23 | 0.03 | 0.06 | 89 | 1015.4 |
| 20260904034941 | 76 | 48 | 1.0 | 9.0 | 0.87 | 0.02 | 0.03 | 89 | 1015.3 |
| 20260904034616 | 77 | 355 | 1.0 | 9.0 | 0.00 | 0.01 | 0.01 | 87 | 1015.0 |
| 20260904034508 | 77 | 101 | 1.0 | 9.0 | 0.00 | 0.01 | 0.01 | 88 | 1014.7 |
| 20260904034405 | 77 | 238 | 2.0 | 9.0 | 0.00 | 0.01 | 0.01 | 89 | 1014.4 |
| 20260904034259 | 77 | 29 | 2.0 | 9.0 | 0.00 | 0.01 | 0.01 | 90 | 1014.5 |
| 20260904034157 | 78 | 46 | 1.0 | 9.0 | 0.00 | 0.01 | 0.01 | 90 | 1014.6 |
| 20260904034055 | 78 | 304 | 1.0 | 8.0 | 0.00 | 0.01 | 0.01 | 90 | 1014.5 |
| 20260904033950 | 78 | 113 | 1.0 | 8.0 | 0.00 | 0.01 | 0.01 | 91 | 1014.6 |
| 20260904033847 | 78 | 53 | 1.0 | 8.0 | 0.00 | 0.01 | 0.01 | 92 | 1014.5 |
| 20260904033743 | 78 | 73 | 1.0 | 8.0 | 0.00 | 0.01 | 0.01 | 92 | 1014.6 |
| 20260904033418 | 78 | 321 | 1.0 | 8.0 | 0.00 | 0.01 | 0.01 | 93 | 1014.6 |
| 20260904033312 | 79 | 96 | 0.0 | 5.0 | 0.00 | 0.01 | 0.01 | 94 | 1014.5 |
| 20260904033207 | 79 | 122 | 0.0 | 3.0 | 0.00 | 0.01 | 0.01 | 94 | 1014.2 |
| 20260904033059 | 79 | 9 | 0.0 | 3.0 | 0.00 | 0.01 | 0.01 | 95 | 1014.2 |
| 20260904032952 | 79 | 319 | 0.0 | 2.0 | 0.00 | 0.01 | 0.01 | 95 | 1013.8 |
| 20260904032846 | 79 | 344 | 0.0 | 2.0 | 0.00 | 0.01 | 0.01 | 95 | 1013.6 |
| 20260904032742 | 79 | 265 | 0.0 | 2.0 | 0.00 | 0.01 | 0.01 | 95 | 1013.4 |
| 20260904032637 | 79 | 65 | 0.0 | 2.0 | 0.00 | 0.01 | 0.01 | 95 | 1013.4 |
| 20260904032535 | 79 | 323 | 0.0 | 1.0 | 0.00 | 0.01 | 0.01 | 95 | 1013.4 |
| 20260904032430 | 79 | 300 | 0.0 | 0.0 | 0.00 | 0.01 | 0.01 | 95 | 1013.3 |
| 20260904032106 | 79 | 171 | 0.0 | 0.0 | 0.00 | 0.01 | 0.01 | 94 | 1013.3 |
| 20260904032003 | 79 | 171 | 0.0 | 0.0 | 0.00 | 0.01 | 0.01 | 94 | 1013.3 |
| 20260904031854 | 79 | 233 | 0.0 | 0.0 | 0.00 | 0.01 | 0.01 | 94 | 1013.3 |
| 20260904031749 | 79 | 233 | 0.0 | 0.0 | 0.00 | 0.01 | 0.01 | 94 | 1013.3 |
| 20260904031643 | 79 | 233 | 0.0 | 0.0 | 0.00 | 0.01 | 0.01 | 94 | 1013.3 |
| 20260904031541 | 79 | 233 | 0.0 | 2.0 | 0.00 | 0.01 | 0.01 | 94 | 1013.3 |
| 20260904031436 | 79 | 233 | 0.0 | 2.0 | 0.00 | 0.01 | 0.01 | 94 | 1013.3 |
| 20260904030847 | 79 | 233 | 0.0 | 2.0 | 0.00 | 0.01 | 0.01 | 94 | 1012.8 |
| 20260904030744 | 79 | 169 | 0.0 | 2.0 | 0.00 | 0.01 | 0.01 | 94 | 1012.8 |
| 20260904030422 | 79 | 166 | 0.0 | 2.0 | 0.00 | 0.01 | 0.01 | 94 | 1012.8 |
| 20260904030315 | 79 | 166 | 0.0 | 2.0 | 0.00 | 0.01 | 0.01 | 94 | 1012.8 |
| 20260904030207 | 79 | 166 | 0.0 | 2.0 | 0.00 | 0.01 | 0.01 | 94 | 1012.7 |
| 20260904030100 | 79 | 166 | 0.0 | 2.0 | 0.00 | 0.01 | 0.01 | 94 | 1012.7 |
| 20260904025734 | 79 | 74 | 0.0 | 1.0 | 0.00 | 0.01 | 0.01 | 94 | 1012.5 |
| 20260904025630 | 79 | 74 | 0.0 | 1.0 | 0.00 | 0.01 | 0.01 | 94 | 1012.5 |
| 20260904025525 | 79 | 74 | 0.0 | 1.0 | 0.00 | 0.01 | 0.01 | 94 | 1012.5 |
| 20260904025418 | 79 | 74 | 0.0 | 1.0 | 0.00 | 0.01 | 0.01 | 94 | 1012.5 |
| 20260904025314 | 79 | 74 | 0.0 | 1.0 | 0.00 | 0.01 | 0.01 | 94 | 1012.6 |
| 20260904025208 | 79 | 74 | 0.0 | 1.0 | 0.00 | 0.01 | 0.01 | 94 | 1012.6 |
| 20260904025105 | 79 | 74 | 0.0 | 1.0 | 0.00 | 0.01 | 0.01 | 94 | 1012.6 |
| 20260904024740 | 79 | 165 | 0.0 | 1.0 | 0.00 | 0.01 | 0.01 | 94 | 1012.6 |
| 20260904024633 | 79 | 155 | 0.0 | 1.0 | 0.00 | 0.01 | 0.01 | 94 | 1012.6 |
| 20260904024527 | 79 | 190 | 0.0 | 1.0 | 0.00 | 0.01 | 0.01 | 94 | 1012.7 |
| 20260904024420 | 79 | 190 | 0.0 | 1.0 | 0.00 | 0.01 | 0.01 | 93 | 1012.7 |
| 20260904024057 | 79 | 195 | 0.0 | 1.0 | 0.00 | 0.01 | 0.01 | 93 | 1012.8 |
| 20260904023955 | 79 | 219 | 0.0 | 1.0 | 0.00 | 0.01 | 0.01 | 93 | 1012.9 |
| 20260904023849 | 79 | 219 | 0.0 | 1.0 | 0.00 | 0.01 | 0.01 | 93 | 1013.0 |
| 20260904023742 | 79 | 219 | 0.0 | 1.0 | 0.00 | 0.01 | 0.01 | 93 | 1013.0 |
| 20260904023637 | 79 | 219 | 0.0 | 1.0 | 0.00 | 0.00 | 0.01 | 93 | 1013.1 |
| 20260904023535 | 79 | 219 | 0.0 | 1.0 | 0.00 | 0.00 | 0.00 | 93 | 1013.1 |
| 20260904023429 | 79 | 219 | 0.0 | 1.0 | 0.00 | 0.00 | 0.00 | 93 | 1013.1 |
| 20260904023322 | 79 | 219 | 0.0 | 1.0 | 0.00 | 0.00 | 0.00 | 93 | 1013.1 |
| 20260904023218 | 79 | 219 | 0.0 | 1.0 | 0.00 | 0.00 | 0.00 | 93 | 1013.1 |
| 20260904023115 | 79 | 219 | 0.0 | 1.0 | 0.00 | 0.00 | 0.00 | 93 | 1013.2 |
| 20260904022751 | 79 | 294 | 0.0 | 1.0 | 0.00 | 0.00 | 0.00 | 93 | 1013.2 |
| 20260904022200 | 79 | 294 | 0.0 | 0.0 | 0.00 | 0.00 | 0.00 | 92 | 1013.1 |
| 20260904022054 | 79 | 294 | 0.0 | 0.0 | 0.00 | 0.00 | 0.00 | 92 | 1013.1 |
| 20260904021949 | 79 | 294 | 0.0 | 0.0 | 0.00 | 0.00 | 0.00 | 92 | 1013.1 |
| 20260904021842 | 79 | 294 | 0.0 | 0.0 | 0.00 | 0.00 | 0.00 | 92 | 1013.0 |
| 20260904021736 | 79 | 294 | 0.0 | 0.0 | 0.00 | 0.00 | 0.00 | 92 | 1013.0 |
| 20260904021406 | 79 | 294 | 0.0 | 1.0 | 0.00 | 0.00 | 0.00 | 92 | 1013.2 |
| 20260904021259 | 79 | 351 | 0.0 | 1.0 | 0.00 | 0.00 | 0.00 | 92 | 1013.2 |
| 20260904021153 | 79 | 246 | 0.0 | 1.0 | 0.00 | 0.00 | 0.00 | 92 | 1013.2 |
| 20260904021045 | 79 | 292 | 0.0 | 0.0 | 0.00 | 0.00 | 0.00 | 92 | 1013.3 |
| 20260904020939 | 79 | 292 | 0.0 | 0.0 | 0.00 | 0.00 | 0.00 | 92 | 1013.3 |
| 20260904020833 | 79 | 290 | 0.0 | 0.0 | 0.00 | 0.00 | 0.00 | 92 | 1013.3 |
| 20260904020728 | 79 | 290 | 0.0 | 0.0 | 0.00 | 0.00 | 0.00 | 92 | 1013.3 |
| 20260904020623 | 80 | 244 | 0.0 | 0.0 | 0.00 | 0.00 | 0.00 | 92 | 1013.3 |
| 20260904020520 | 80 | 244 | 0.0 | 0.0 | 0.00 | 0.00 | 0.00 | 92 | 1013.2 |
| 20260904020414 | 80 | 244 | 0.0 | 0.0 | 0.00 | 0.00 | 0.00 | 92 | 1013.2 |
| 20260904020307 | 80 | 244 | 0.0 | 0.0 | 0.00 | 0.00 | 0.00 | 92 | 1013.3 |
| 20260904020204 | 80 | 244 | 0.0 | 0.0 | 0.00 | 0.00 | 0.00 | 92 | 1013.3 |
| 20260904020056 | 80 | 244 | 0.0 | 0.0 | 0.00 | 0.00 | 0.00 | 92 | 1013.3 |
| 20260904015953 | 80 | 244 | 0.0 | 0.0 | 0.00 | 0.00 | 0.00 | 92 | 1013.2 |
| 20260904015633 | 80 | 244 | 0.0 | 0.0 | 0.00 | 0.00 | 0.00 | 92 | 1013.1 |
| 20260904015525 | 80 | 244 | 0.0 | 0.0 | 0.00 | 0.00 | 0.00 | 92 | 1013.1 |
| 20260904014722 | 80 | 244 | 0.0 | 0.0 | 0.00 | 0.00 | 0.00 | 91 | 1013.2 |
| 20260904014617 | 80 | 244 | 0.0 | 0.0 | 0.00 | 0.00 | 0.00 | 91 | 1013.2 |
| 20260904014512 | 80 | 244 | 0.0 | 0.0 | 0.00 | 0.00 | 0.00 | 91 | 1013.3 |
| 20260904014405 | 80 | 244 | 0.0 | 0.0 | 0.00 | 0.00 | 0.00 | 91 | 1013.3 |
| 20260904014302 | 80 | 244 | 0.0 | 0.0 | 0.00 | 0.00 | 0.00 | 91 | 1013.2 |
| 20260904014156 | 80 | 244 | 0.0 | 0.0 | 0.00 | 0.00 | 0.00 | 91 | 1013.2 |
| 20260904014049 | 80 | 244 | 0.0 | 0.0 | 0.00 | 0.00 | 0.00 | 91 | 1013.1 |
| 20260904013941 | 80 | 244 | 0.0 | 0.0 | 0.00 | 0.00 | 0.00 | 91 | 1013.2 |
| 20260904013834 | 80 | 244 | 0.0 | 0.0 | 0.00 | 0.00 | 0.00 | 91 | 1013.2 |
| 20260904013725 | 80 | 244 | 0.0 | 0.0 | 0.00 | 0.00 | 0.00 | 91 | 1013.2 |
| 20260904013619 | 80 | 244 | 0.0 | 0.0 | 0.00 | 0.00 | 0.00 | 91 | 1013.2 |
| 20260904013515 | 80 | 244 | 0.0 | 0.0 | 0.00 | 0.00 | 0.00 | 91 | 1013.2 |
| 20260904013409 | 80 | 244 | 0.0 | 0.0 | 0.00 | 0.00 | 0.00 | 91 | 1013.2 |
| 20260904013048 | 80 | 244 | 0.0 | 0.0 | 0.00 | 0.00 | 0.00 | 91 | 1013.2 |
| 20260904012721 | 80 | 244 | 0.0 | 0.0 | 0.00 | 0.00 | 0.00 | 91 | 1013.2 |
| 20260904012616 | 80 | 244 | 0.0 | 0.0 | 0.00 | 0.00 | 0.00 | 91 | 1013.2 |
| 20260904012253 | 80 | 244 | 0.0 | 0.0 | 0.00 | 0.00 | 0.00 | 91 | 1013.0 |
| 20260904012151 | 80 | 244 | 0.0 | 0.0 | 0.00 | 0.00 | 0.00 | 91 | 1013.0 |
| 20260904011602 | 80 | 244 | 0.0 | 0.0 | 0.00 | 0.00 | 0.00 | 91 | 1013.0 |
| 20260904011458 | 80 | 244 | 0.0 | 0.0 | 0.00 | 0.00 | 0.00 | 90 | 1013.0 |
| 20260904011135 | 80 | 244 | 0.0 | 0.0 | 0.00 | 0.00 | 0.00 | 90 | 1013.0 |
| 20260904011030 | 80 | 244 | 0.0 | 0.0 | 0.00 | 0.00 | 0.00 | 90 | 1013.0 |
| 20260904010926 | 80 | 244 | 0.0 | 0.0 | 0.00 | 0.00 | 0.00 | 90 | 1013.0 |
| 20260904010822 | 81 | 244 | 0.0 | 0.0 | 0.00 | 0.00 | 0.00 | 90 | 1013.0 |
| 20260904010718 | 81 | 244 | 0.0 | 0.0 | 0.00 | 0.00 | 0.00 | 90 | 1013.0 |
| 20260904010612 | 81 | 244 | 0.0 | 0.0 | 0.00 | 0.00 | 0.00 | 90 | 1013.0 |
| 20260904010508 | 81 | 244 | 0.0 | 0.0 | 0.00 | 0.00 | 0.00 | 90 | 1013.0 |
| 20260904010402 | 81 | 244 | 0.0 | 0.0 | 0.00 | 0.00 | 0.00 | 90 | 1013.0 |
| 20260904010042 | 81 | 244 | 0.0 | 0.0 | 0.00 | 0.00 | 0.00 | 90 | 1013.0 |
| 20260904005935 | 81 | 244 | 0.0 | 0.0 | 0.00 | 0.00 | 0.00 | 90 | 1013.0 |
| 20260904005832 | 81 | 244 | 0.0 | 0.0 | 0.00 | 0.00 | 0.00 | 90 | 1013.0 |
| 20260904005507 | 81 | 244 | 0.0 | 0.0 | 0.00 | 0.00 | 0.00 | 90 | 1013.1 |
| 20260904005403 | 81 | 244 | 0.0 | 0.0 | 0.00 | 0.00 | 0.00 | 90 | 1013.2 |
| 20260904005257 | 81 | 244 | 0.0 | 0.0 | 0.00 | 0.00 | 0.00 | 90 | 1013.2 |
| 20260904005151 | 81 | 244 | 0.0 | 0.0 | 0.00 | 0.00 | 0.00 | 90 | 1013.2 |
| 20260904005045 | 81 | 244 | 0.0 | 0.0 | 0.00 | 0.00 | 0.00 | 90 | 1013.2 |
| 20260904004939 | 81 | 244 | 0.0 | 0.0 | 0.00 | 0.00 | 0.00 | 90 | 1013.1 |
| 20260904004348 | 81 | 244 | 0.0 | 1.0 | 0.00 | 0.00 | 0.00 | 89 | 1013.3 |
| 20260904004240 | 81 | 244 | 0.0 | 1.0 | 0.00 | 0.00 | 0.00 | 89 | 1013.3 |
| 20260904004133 | 81 | 244 | 0.0 | 0.0 | 0.00 | 0.00 | 0.00 | 89 | 1013.4 |
| 20260904004028 | 81 | 244 | 0.0 | 0.0 | 0.00 | 0.00 | 0.00 | 89 | 1013.4 |
| 20260904003923 | 81 | 244 | 0.0 | 0.0 | 0.00 | 0.00 | 0.00 | 89 | 1013.4 |
| 20260904003820 | 81 | 244 | 0.0 | 0.0 | 0.00 | 0.00 | 0.00 | 89 | 1013.4 |
| 20260904003714 | 81 | 244 | 0.0 | 0.0 | 0.00 | 0.00 | 0.00 | 89 | 1013.3 |
| 20260904003612 | 81 | 244 | 0.0 | 0.0 | 0.00 | 0.00 | 0.00 | 89 | 1013.3 |
| 20260904003510 | 81 | 244 | 0.0 | 0.0 | 0.00 | 0.00 | 0.00 | 89 | 1013.3 |
| 20260904003407 | 81 | 244 | 0.0 | 0.0 | 0.00 | 0.00 | 0.00 | 89 | 1013.3 |
| 20260904003306 | 81 | 244 | 0.0 | 0.0 | 0.00 | 0.00 | 0.00 | 89 | 1013.4 |
| 20260904003158 | 81 | 244 | 0.0 | 0.0 | 0.00 | 0.00 | 0.00 | 89 | 1013.4 |
| 20260904003056 | 81 | 244 | 0.0 | 0.0 | 0.00 | 0.00 | 0.00 | 89 | 1013.4 |
| 20260904002953 | 81 | 244 | 0.0 | 0.0 | 0.00 | 0.00 | 0.00 | 89 | 1013.5 |
| 20260904002849 | 81 | 244 | 0.0 | 0.0 | 0.00 | 0.00 | 0.00 | 89 | 1013.5 |
| 20260904002746 | 81 | 244 | 0.0 | 0.0 | 0.00 | 0.00 | 0.00 | 89 | 1013.5 |
| 20260904002639 | 81 | 244 | 0.0 | 0.0 | 0.00 | 0.00 | 0.00 | 89 | 1013.6 |
| 20260904002534 | 81 | 244 | 0.0 | 0.0 | 0.00 | 0.00 | 0.00 | 89 | 1013.6 |
| 20260904002426 | 81 | 244 | 0.0 | 0.0 | 0.00 | 0.00 | 0.00 | 89 | 1013.6 |
| 20260904002320 | 81 | 244 | 0.0 | 1.0 | 0.00 | 0.00 | 0.00 | 89 | 1013.6 |
| 20260904002216 | 81 | 244 | 0.0 | 1.0 | 0.00 | 0.00 | 0.00 | 89 | 1013.6 |
| 20260904002109 | 81 | 244 | 0.0 | 1.0 | 0.00 | 0.00 | 0.00 | 88 | 1013.7 |
| 20260904002006 | 81 | 244 | 0.0 | 1.0 | 0.00 | 0.00 | 0.00 | 89 | 1013.6 |
| 20260904001640 | 82 | 244 | 0.0 | 1.0 | 0.00 | 0.00 | 0.00 | 89 | 1013.6 |
| 20260904001536 | 82 | 244 | 0.0 | 0.0 | 0.00 | 0.00 | 0.00 | 89 | 1013.5 |
| 20260904001207 | 82 | 244 | 0.0 | 0.0 | 0.00 | 0.00 | 0.00 | 88 | 1013.6 |
| 20260904001102 | 82 | 244 | 0.0 | 0.0 | 0.00 | 0.00 | 0.00 | 88 | 1013.6 |
| 20260904000958 | 82 | 244 | 0.0 | 0.0 | 0.00 | 0.00 | 0.00 | 88 | 1013.6 |
| 20260904000854 | 82 | 244 | 0.0 | 0.0 | 0.00 | 0.00 | 0.00 | 88 | 1013.6 |
| 20260904000749 | 82 | 244 | 0.0 | 0.0 | 0.00 | 0.00 | 0.00 | 88 | 1013.6 |
| 20260904000644 | 82 | 244 | 0.0 | 0.0 | 0.00 | 0.00 | 0.00 | 88 | 1013.6 |
| 20260904000541 | 82 | 244 | 0.0 | 0.0 | 0.00 | 0.00 | 0.00 | 88 | 1013.6 |
| 20260904000435 | 82 | 244 | 0.0 | 0.0 | 0.00 | 0.00 | 0.00 | 88 | 1013.5 |
| 20260904000328 | 82 | 244 | 0.0 | 0.0 | 0.00 | 0.00 | 0.00 | 88 | 1013.6 |
| 20260904000226 | 82 | 244 | 0.0 | 0.0 | 0.00 | 0.00 | 0.00 | 88 | 1013.6 |
| 20260904000117 | 82 | 244 | 0.0 | 0.0 | 0.00 | 0.00 | 0.00 | 88 | 1013.6 |
| 20260904000011 | 82 | 244 | 0.0 | 0.0 | 0.00 | 0.00 | 0.00 | 88 | 1013.6 |
| 20260903235909 | 82 | 244 | 0.0 | 0.0 | 0.00 | 0.00 | 0.00 | 88 | 1013.6 |
| 20260903235541 | 82 | 244 | 0.0 | 0.0 | 0.00 | 0.00 | 0.00 | 87 | 1013.4 |
| 20260903234953 | 82 | 244 | 0.0 | 0.0 | 0.00 | 0.00 | 0.00 | 87 | 1013.4 |
| 20260903234845 | 82 | 244 | 0.0 | 0.0 | 0.00 | 0.00 | 0.00 | 87 | 1013.4 |
| 20260903234518 | 82 | 244 | 0.0 | 1.0 | 0.00 | 0.00 | 0.00 | 87 | 1013.4 |
| 20260903234412 | 82 | 244 | 0.0 | 1.0 | 0.00 | 0.00 | 0.00 | 87 | 1013.4 |
| 20260903234307 | 82 | 244 | 0.0 | 1.0 | 0.00 | 0.00 | 0.00 | 87 | 1013.3 |
| 20260903234203 | 82 | 244 | 0.0 | 1.0 | 0.00 | 0.00 | 0.00 | 87 | 1013.3 |
| 20260903233839 | 83 | 244 | 0.0 | 1.0 | 0.00 | 0.00 | 0.00 | 87 | 1013.3 |
| 20260903233734 | 83 | 244 | 0.0 | 1.0 | 0.00 | 0.00 | 0.00 | 87 | 1013.2 |
| 20260903233628 | 83 | 244 | 0.0 | 1.0 | 0.00 | 0.00 | 0.00 | 87 | 1013.1 |
| 20260903233525 | 83 | 244 | 0.0 | 0.0 | 0.00 | 0.00 | 0.00 | 86 | 1013.0 |
| 20260903233202 | 83 | 210 | 0.0 | 2.0 | 0.00 | 0.00 | 0.00 | 86 | 1013.0 |
| 20260903233055 | 83 | 210 | 0.0 | 2.0 | 0.00 | 0.00 | 0.00 | 86 | 1013.0 |
| 20260903232731 | 83 | 138 | 0.0 | 1.0 | 0.00 | 0.00 | 0.00 | 86 | 1012.9 |
| 20260903232626 | 83 | 138 | 0.0 | 1.0 | 0.00 | 0.00 | 0.00 | 86 | 1012.9 |
| 20260903232521 | 83 | 138 | 0.0 | 1.0 | 0.00 | 0.00 | 0.00 | 86 | 1012.9 |
| 20260903232415 | 83 | 138 | 0.0 | 1.0 | 0.00 | 0.00 | 0.00 | 86 | 1012.8 |
| 20260903232052 | 83 | 138 | 0.0 | 0.0 | 0.00 | 0.00 | 0.00 | 86 | 1012.8 |
| 20260903231948 | 83 | 138 | 0.0 | 2.0 | 0.00 | 0.00 | 0.00 | 86 | 1012.8 |
| 20260903231842 | 83 | 138 | 0.0 | 2.0 | 0.00 | 0.00 | 0.00 | 86 | 1012.8 |
| 20260903231515 | 83 | 229 | 0.0 | 2.0 | 0.00 | 0.00 | 0.00 | 86 | 1012.8 |
| 20260903231413 | 83 | 229 | 0.0 | 2.0 | 0.00 | 0.00 | 0.00 | 86 | 1012.8 |
| 20260903231308 | 83 | 229 | 0.0 | 2.0 | 0.00 | 0.00 | 0.00 | 86 | 1012.8 |
| 20260903231202 | 83 | 227 | 0.0 | 1.0 | 0.00 | 0.00 | 0.00 | 85 | 1012.8 |
| 20260903231056 | 83 | 109 | 0.0 | 1.0 | 0.00 | 0.00 | 0.00 | 85 | 1012.8 |
| 20260903230952 | 83 | 242 | 0.0 | 1.0 | 0.00 | 0.00 | 0.00 | 85 | 1012.8 |
| 20260903230846 | 83 | 242 | 0.0 | 1.0 | 0.00 | 0.00 | 0.00 | 85 | 1012.8 |
| 20260903230518 | 84 | 46 | 0.0 | 1.0 | 0.00 | 0.00 | 0.00 | 85 | 1012.8 |
| 20260903230147 | 84 | 46 | 0.0 | 1.0 | 0.00 | 0.00 | 0.00 | 84 | 1012.9 |
| 20260903225826 | 84 | 275 | 0.0 | 1.0 | 0.00 | 0.00 | 0.00 | 84 | 1012.9 |
| 20260903225724 | 84 | 244 | 0.0 | 1.0 | 0.00 | 0.00 | 0.00 | 84 | 1012.9 |
| 20260903225615 | 84 | 209 | 0.0 | 1.0 | 0.00 | 0.00 | 0.00 | 84 | 1012.9 |
| 20260903225509 | 84 | 209 | 0.0 | 1.0 | 0.00 | 0.00 | 0.00 | 84 | 1013.0 |
| 20260903225403 | 84 | 202 | 0.0 | 1.0 | 0.00 | 0.00 | 0.00 | 84 | 1013.0 |
| 20260903225259 | 84 | 126 | 0.0 | 0.0 | 0.00 | 0.00 | 0.00 | 84 | 1013.0 |
| 20260903225155 | 84 | 165 | 0.0 | 0.0 | 0.00 | 0.00 | 0.00 | 84 | 1012.9 |
| 20260903225049 | 84 | 165 | 0.0 | 0.0 | 0.00 | 0.00 | 0.00 | 84 | 1012.9 |
| 20260903224943 | 84 | 165 | 0.0 | 0.0 | 0.00 | 0.00 | 0.00 | 84 | 1012.9 |
| 20260903224840 | 84 | 165 | 0.0 | 0.0 | 0.00 | 0.00 | 0.00 | 84 | 1012.8 |
| 20260903224735 | 84 | 165 | 0.0 | 0.0 | 0.00 | 0.00 | 0.00 | 84 | 1012.7 |
| 20260903224631 | 84 | 165 | 0.0 | 0.0 | 0.00 | 0.00 | 0.00 | 84 | 1012.7 |
| 20260903224525 | 84 | 165 | 0.0 | 0.0 | 0.00 | 0.00 | 0.00 | 84 | 1012.6 |
| 20260903224422 | 84 | 165 | 0.0 | 0.0 | 0.00 | 0.00 | 0.00 | 84 | 1012.6 |
| 20260903224052 | 84 | 157 | 0.0 | 0.0 | 0.00 | 0.00 | 0.00 | 83 | 1012.8 |
| 20260903223945 | 84 | 157 | 0.0 | 0.0 | 0.00 | 0.00 | 0.00 | 83 | 1012.7 |
| 20260903223842 | 84 | 157 | 0.0 | 0.0 | 0.00 | 0.00 | 0.00 | 83 | 1012.7 |
| 20260903223736 | 84 | 157 | 0.0 | 0.0 | 0.00 | 0.00 | 0.00 | 84 | 1012.6 |
| 20260903223630 | 84 | 202 | 0.0 | 0.0 | 0.00 | 0.00 | 0.00 | 84 | 1012.6 |
| 20260903223307 | 85 | 251 | 0.0 | 0.0 | 0.00 | 0.00 | 0.00 | 84 | 1012.4 |
| 20260903223201 | 84 | 251 | 0.0 | 0.0 | 0.00 | 0.00 | 0.00 | 84 | 1012.4 |
| 20260903223057 | 85 | 245 | 0.0 | 0.0 | 0.00 | 0.00 | 0.00 | 83 | 1012.4 |
| 20260903222952 | 85 | 245 | 0.0 | 0.0 | 0.00 | 0.00 | 0.00 | 83 | 1012.4 |
| 20260903222625 | 85 | 245 | 0.0 | 2.0 | 0.00 | 0.00 | 0.00 | 82 | 1012.5 |
| 20260903221820 | 85 | 302 | 0.0 | 3.0 | 0.00 | 0.00 | 0.00 | 82 | 1012.5 |
| 20260903221713 | 85 | 302 | 0.0 | 3.0 | 0.00 | 0.00 | 0.00 | 82 | 1012.5 |
| 20260903221608 | 85 | 19 | 0.0 | 3.0 | 0.00 | 0.00 | 0.00 | 82 | 1012.4 |
| 20260903221502 | 85 | 193 | 0.0 | 3.0 | 0.00 | 0.00 | 0.00 | 82 | 1012.4 |
| 20260903221359 | 85 | 234 | 0.0 | 3.0 | 0.00 | 0.00 | 0.00 | 82 | 1012.4 |
| 20260903221255 | 85 | 234 | 0.0 | 3.0 | 0.00 | 0.00 | 0.00 | 82 | 1012.4 |
| 20260903220931 | 85 | 247 | 0.0 | 3.0 | 0.00 | 0.00 | 0.00 | 81 | 1012.4 |
| 20260903220824 | 85 | 42 | 0.0 | 3.0 | 0.00 | 0.00 | 0.00 | 82 | 1012.4 |
| 20260903220454 | 85 | 339 | 0.0 | 5.0 | 0.00 | 0.00 | 0.00 | 82 | 1012.4 |
| 20260903220351 | 85 | 339 | 0.0 | 5.0 | 0.00 | 0.00 | 0.00 | 82 | 1012.5 |
| 20260903220246 | 85 | 240 | 0.0 | 5.0 | 0.00 | 0.00 | 0.00 | 82 | 1012.5 |
| 20260903220140 | 85 | 69 | 0.0 | 5.0 | 0.00 | 0.00 | 0.00 | 82 | 1012.5 |
| 20260903220038 | 85 | 69 | 0.0 | 5.0 | 0.00 | 0.00 | 0.00 | 81 | 1012.6 |
| 20260903215935 | 85 | 69 | 0.0 | 5.0 | 0.00 | 0.00 | 0.00 | 81 | 1012.5 |
| 20260903215611 | 85 | 229 | 0.0 | 5.0 | 0.00 | 0.00 | 0.00 | 82 | 1012.6 |
| 20260903215505 | 85 | 229 | 1.0 | 5.0 | 0.00 | 0.00 | 0.00 | 82 | 1012.6 |
| 20260903215402 | 85 | 227 | 1.0 | 5.0 | 0.00 | 0.00 | 0.00 | 82 | 1012.7 |
| 20260903215255 | 85 | 214 | 1.0 | 5.0 | 0.00 | 0.00 | 0.00 | 82 | 1012.7 |
| 20260903215154 | 85 | 350 | 1.0 | 5.0 | 0.00 | 0.00 | 0.00 | 82 | 1012.7 |
| 20260903215046 | 85 | 215 | 1.0 | 5.0 | 0.00 | 0.00 | 0.00 | 82 | 1012.7 |
| 20260903214940 | 85 | 180 | 0.0 | 5.0 | 0.00 | 0.00 | 0.00 | 82 | 1012.7 |
| 20260903214837 | 85 | 239 | 1.0 | 5.0 | 0.00 | 0.00 | 0.00 | 82 | 1012.7 |
| 20260903214732 | 85 | 42 | 1.0 | 5.0 | 0.00 | 0.00 | 0.00 | 81 | 1012.7 |
| 20260903214625 | 85 | 61 | 1.0 | 5.0 | 0.00 | 0.00 | 0.00 | 82 | 1012.6 |
| 20260903214518 | 85 | 280 | 0.0 | 4.0 | 0.00 | 0.00 | 0.00 | 81 | 1012.6 |
| 20260903214411 | 85 | 17 | 0.0 | 3.0 | 0.00 | 0.00 | 0.00 | 82 | 1012.7 |
| 20260903214308 | 85 | 17 | 0.0 | 3.0 | 0.00 | 0.00 | 0.00 | 82 | 1012.6 |
| 20260903213942 | 85 | 197 | 0.0 | 3.0 | 0.00 | 0.00 | 0.00 | 81 | 1012.6 |
| 20260903213838 | 85 | 202 | 0.0 | 2.0 | 0.00 | 0.00 | 0.00 | 81 | 1012.7 |
| 20260903213730 | 85 | 338 | 0.0 | 2.0 | 0.00 | 0.00 | 0.00 | 81 | 1012.7 |
| 20260903213405 | 85 | 252 | 0.0 | 2.0 | 0.00 | 0.00 | 0.00 | 80 | 1012.7 |
| 20260903213258 | 85 | 57 | 0.0 | 2.0 | 0.00 | 0.00 | 0.00 | 81 | 1012.7 |
| 20260903212939 | 85 | 168 | 0.0 | 2.0 | 0.00 | 0.00 | 0.00 | 82 | 1012.8 |
| 20260903212835 | 85 | 192 | 0.0 | 2.0 | 0.00 | 0.00 | 0.00 | 82 | 1012.8 |
| 20260903212515 | 85 | 36 | 0.0 | 4.0 | 0.00 | 0.00 | 0.00 | 81 | 1012.8 |
| 20260903212410 | 85 | 202 | 0.0 | 4.0 | 0.00 | 0.00 | 0.00 | 82 | 1012.8 |
| 20260903212307 | 85 | 270 | 0.0 | 4.0 | 0.00 | 0.00 | 0.00 | 82 | 1012.8 |
| 20260903212201 | 85 | 159 | 0.0 | 4.0 | 0.00 | 0.00 | 0.00 | 82 | 1012.8 |
| 20260903211838 | 85 | 250 | 0.0 | 4.0 | 0.00 | 0.00 | 0.00 | 83 | 1012.8 |
| 20260903211730 | 85 | 202 | 0.0 | 4.0 | 0.00 | 0.00 | 0.00 | 83 | 1012.9 |
| 20260903211624 | 85 | 202 | 0.0 | 4.0 | 0.00 | 0.00 | 0.00 | 82 | 1012.9 |
| 20260903211517 | 85 | 196 | 0.0 | 4.0 | 0.00 | 0.00 | 0.00 | 82 | 1012.9 |
| 20260903211413 | 85 | 28 | 0.0 | 4.0 | 0.00 | 0.00 | 0.00 | 83 | 1012.9 |
| 20260903211308 | 85 | 178 | 0.0 | 4.0 | 0.00 | 0.00 | 0.00 | 82 | 1012.9 |
| 20260903211201 | 85 | 218 | 0.0 | 4.0 | 0.00 | 0.00 | 0.00 | 82 | 1012.9 |
| 20260903211058 | 85 | 216 | 0.0 | 4.0 | 0.00 | 0.00 | 0.00 | 82 | 1012.9 |
| 20260903210952 | 85 | 194 | 0.0 | 4.0 | 0.00 | 0.00 | 0.00 | 81 | 1012.9 |
| 20260903210845 | 85 | 198 | 0.0 | 4.0 | 0.00 | 0.00 | 0.00 | 81 | 1012.9 |
| 20260903210257 | 85 | 30 | 1.0 | 3.0 | 0.00 | 0.00 | 0.00 | 82 | 1012.9 |
| 20260903210155 | 85 | 339 | 0.0 | 3.0 | 0.00 | 0.00 | 0.00 | 82 | 1012.9 |
| 20260903205836 | 86 | 226 | 0.0 | 3.0 | 0.00 | 0.00 | 0.00 | 81 | 1012.9 |
| 20260903205732 | 86 | 234 | 0.0 | 3.0 | 0.00 | 0.00 | 0.00 | 81 | 1013.0 |
| 20260903205625 | 86 | 64 | 0.0 | 3.0 | 0.00 | 0.00 | 0.00 | 81 | 1012.9 |
| 20260903205520 | 86 | 36 | 0.0 | 3.0 | 0.00 | 0.00 | 0.00 | 80 | 1013.0 |
| 20260903205413 | 86 | 161 | 0.0 | 3.0 | 0.00 | 0.00 | 0.00 | 80 | 1013.0 |
| 20260903205047 | 86 | 130 | 0.0 | 3.0 | 0.00 | 0.00 | 0.00 | 81 | 1013.0 |
| 20260903204945 | 86 | 236 | 0.0 | 3.0 | 0.00 | 0.00 | 0.00 | 81 | 1013.0 |
| 20260903204837 | 86 | 171 | 0.0 | 3.0 | 0.00 | 0.00 | 0.00 | 80 | 1012.9 |
| 20260903204733 | 86 | 219 | 0.0 | 3.0 | 0.00 | 0.00 | 0.00 | 81 | 1012.9 |
| 20260903204407 | 86 | 251 | 0.0 | 4.0 | 0.00 | 0.00 | 0.00 | 80 | 1013.0 |
| 20260903204304 | 86 | 244 | 0.0 | 4.0 | 0.00 | 0.00 | 0.00 | 78 | 1013.0 |
| 20260903204159 | 86 | 85 | 0.0 | 4.0 | 0.00 | 0.00 | 0.00 | 80 | 1013.0 |
| 20260903204056 | 86 | 175 | 0.0 | 4.0 | 0.00 | 0.00 | 0.00 | 80 | 1013.0 |
| 20260903203949 | 86 | 155 | 0.0 | 4.0 | 0.00 | 0.00 | 0.00 | 79 | 1012.9 |
| 20260903203845 | 86 | 219 | 0.0 | 4.0 | 0.00 | 0.00 | 0.00 | 81 | 1013.0 |
| 20260903203739 | 86 | 221 | 0.0 | 4.0 | 0.00 | 0.00 | 0.00 | 81 | 1013.0 |
| 20260903203635 | 86 | 205 | 0.0 | 4.0 | 0.00 | 0.00 | 0.00 | 79 | 1012.9 |
| 20260903203530 | 86 | 266 | 0.0 | 4.0 | 0.00 | 0.00 | 0.00 | 83 | 1012.9 |
| 20260903202947 | 86 | 206 | 0.0 | 4.0 | 0.00 | 0.00 | 0.00 | 82 | 1013.0 |
| 20260903202843 | 86 | 88 | 0.0 | 4.0 | 0.00 | 0.00 | 0.00 | 81 | 1013.0 |
| 20260903202738 | 86 | 262 | 0.0 | 4.0 | 0.00 | 0.01 | 0.00 | 80 | 1012.9 |
| 20260903202413 | 86 | 30 | 0.0 | 3.0 | 0.00 | 0.01 | 0.00 | 82 | 1013.0 |
| 20260903202306 | 86 | 218 | 0.0 | 2.0 | 0.00 | 0.01 | 0.00 | 83 | 1013.0 |
| 20260903202200 | 86 | 113 | 0.0 | 2.0 | 0.00 | 0.01 | 0.00 | 83 | 1013.1 |
| 20260903202054 | 86 | 155 | 0.0 | 2.0 | 0.00 | 0.01 | 0.00 | 82 | 1013.1 |
| 20260903201951 | 86 | 105 | 0.0 | 2.0 | 0.00 | 0.01 | 0.00 | 82 | 1013.1 |
| 20260903201844 | 86 | 117 | 0.0 | 2.0 | 0.00 | 0.01 | 0.00 | 81 | 1013.1 |
| 20260903201737 | 86 | 261 | 0.0 | 3.0 | 0.00 | 0.01 | 0.00 | 81 | 1013.2 |
| 20260903201630 | 86 | 5 | 0.0 | 3.0 | 0.00 | 0.01 | 0.00 | 83 | 1013.2 |
| 20260903201526 | 86 | 92 | 0.0 | 3.0 | 0.00 | 0.01 | 0.00 | 84 | 1013.2 |
| 20260903201420 | 86 | 169 | 0.0 | 3.0 | 0.00 | 0.01 | 0.00 | 84 | 1013.3 |
| 20260903201313 | 86 | 221 | 0.0 | 3.0 | 0.00 | 0.01 | 0.00 | 84 | 1013.3 |
| 20260903201209 | 86 | 140 | 0.0 | 3.0 | 0.00 | 0.01 | 0.00 | 82 | 1013.3 |
| 20260903201102 | 86 | 187 | 0.0 | 3.0 | 0.00 | 0.01 | 0.00 | 83 | 1013.3 |
| 20260903200955 | 86 | 89 | 0.0 | 3.0 | 0.00 | 0.01 | 0.00 | 83 | 1013.3 |
| 20260903200852 | 86 | 213 | 0.0 | 3.0 | 0.00 | 0.01 | 0.00 | 83 | 1013.4 |
| 20260903200749 | 86 | 227 | 0.0 | 3.0 | 0.00 | 0.01 | 0.00 | 81 | 1013.4 |
| 20260903200643 | 86 | 71 | 0.0 | 3.0 | 0.00 | 0.01 | 0.00 | 81 | 1013.4 |
| 20260903200539 | 86 | 0 | 0.0 | 3.0 | 0.00 | 0.01 | 0.00 | 82 | 1013.4 |
| 20260903200433 | 86 | 196 | 0.0 | 3.0 | 0.00 | 0.01 | 0.00 | 82 | 1013.5 |
| 20260903200327 | 86 | 111 | 0.0 | 3.0 | 0.00 | 0.01 | 0.00 | 82 | 1013.5 |
| 20260903200006 | 86 | 161 | 0.0 | 3.0 | 0.00 | 0.01 | 0.00 | 81 | 1013.4 |
| 20260903195901 | 86 | 273 | 0.0 | 3.0 | 0.00 | 0.01 | 0.00 | 82 | 1013.5 |
| 20260903195756 | 86 | 205 | 0.0 | 3.0 | 0.00 | 0.01 | 0.00 | 82 | 1013.4 |
| 20260903195435 | 86 | 244 | 0.0 | 3.0 | 0.00 | 0.01 | 0.00 | 81 | 1013.5 |
| 20260903195330 | 86 | 99 | 0.0 | 3.0 | 0.00 | 0.01 | 0.00 | 80 | 1013.6 |
| 20260903195227 | 86 | 139 | 0.0 | 3.0 | 0.00 | 0.01 | 0.00 | 80 | 1013.6 |
| 20260903195120 | 86 | 139 | 0.0 | 3.0 | 0.00 | 0.01 | 0.00 | 79 | 1013.6 |
| 20260903195017 | 86 | 105 | 0.0 | 3.0 | 0.00 | 0.01 | 0.00 | 79 | 1013.6 |
| 20260903194915 | 87 | 219 | 0.0 | 3.0 | 0.00 | 0.01 | 0.00 | 79 | 1013.6 |
| 20260903194813 | 87 | 327 | 0.0 | 3.0 | 0.00 | 0.01 | 0.00 | 79 | 1013.6 |
| 20260903194709 | 87 | 189 | 0.0 | 5.0 | 0.00 | 0.01 | 0.00 | 79 | 1013.7 |
| 20260903194604 | 87 | 76 | 0.0 | 5.0 | 0.00 | 0.01 | 0.00 | 79 | 1013.7 |
| 20260903194239 | 87 | 204 | 0.0 | 5.0 | 0.00 | 0.01 | 0.00 | 79 | 1013.8 |
| 20260903194133 | 87 | 139 | 0.0 | 5.0 | 0.00 | 0.01 | 0.00 | 77 | 1013.8 |
| 20260903194028 | 87 | 229 | 0.0 | 5.0 | 0.00 | 0.01 | 0.00 | 77 | 1013.8 |
| 20260903193923 | 87 | 301 | 0.0 | 5.0 | 0.00 | 0.01 | 0.00 | 78 | 1013.8 |
| 20260903193819 | 87 | 180 | 1.0 | 5.0 | 0.00 | 0.01 | 0.00 | 77 | 1013.9 |
| 20260903193716 | 87 | 79 | 1.0 | 5.0 | 0.00 | 0.01 | 0.00 | 78 | 1013.8 |
| 20260903193611 | 86 | 157 | 1.0 | 5.0 | 0.00 | 0.01 | 0.00 | 78 | 1013.8 |
| 20260903193503 | 86 | 196 | 1.0 | 5.0 | 0.00 | 0.01 | 0.00 | 79 | 1014.0 |
| 20260903193356 | 86 | 233 | 1.0 | 5.0 | 0.00 | 0.01 | 0.00 | 78 | 1014.0 |
| 20260903193251 | 86 | 163 | 1.0 | 5.0 | 0.00 | 0.01 | 0.00 | 78 | 1014.0 |
| 20260903193143 | 86 | 169 | 1.0 | 5.0 | 0.00 | 0.01 | 0.00 | 78 | 1014.0 |
| 20260903193037 | 86 | 122 | 1.0 | 5.0 | 0.00 | 0.01 | 0.00 | 78 | 1014.0 |
| 20260903192934 | 86 | 115 | 1.0 | 5.0 | 0.00 | 0.01 | 0.00 | 77 | 1014.0 |
| 20260903192830 | 87 | 283 | 1.0 | 5.0 | 0.00 | 0.02 | 0.00 | 76 | 1014.0 |
| 20260903192725 | 87 | 237 | 1.0 | 4.0 | 0.00 | 0.02 | 0.00 | 75 | 1014.0 |
| 20260903192620 | 87 | 229 | 0.0 | 4.0 | 0.00 | 0.02 | 0.00 | 75 | 1014.0 |
| 20260903192518 | 87 | 103 | 0.0 | 4.0 | 0.00 | 0.02 | 0.00 | 75 | 1014.1 |
| 20260903192416 | 87 | 144 | 0.0 | 4.0 | 0.00 | 0.02 | 0.00 | 74 | 1014.1 |
| 20260903192308 | 87 | 90 | 0.0 | 4.0 | 0.00 | 0.02 | 0.00 | 75 | 1014.2 |
| 20260903192205 | 87 | 19 | 0.0 | 5.0 | 0.00 | 0.02 | 0.00 | 75 | 1014.2 |
| 20260903191836 | 87 | 219 | 0.0 | 5.0 | 0.00 | 0.03 | 0.00 | 75 | 1014.2 |
| 20260903191514 | 87 | 187 | 0.0 | 5.0 | 0.00 | 0.03 | 0.00 | 75 | 1014.2 |
| 20260903191412 | 87 | 184 | 0.0 | 5.0 | 0.00 | 0.03 | 0.00 | 74 | 1014.2 |
| 20260903191307 | 87 | 131 | 0.0 | 5.0 | 0.00 | 0.04 | 0.00 | 75 | 1014.2 |
| 20260903190938 | 87 | 63 | 1.0 | 5.0 | 0.00 | 0.04 | 0.00 | 76 | 1014.3 |
| 20260903190832 | 87 | 251 | 1.0 | 5.0 | 0.00 | 0.04 | 0.00 | 76 | 1014.2 |
| 20260903190727 | 87 | 165 | 1.0 | 5.0 | 0.00 | 0.04 | 0.00 | 76 | 1014.2 |
| 20260903190625 | 87 | 130 | 1.0 | 5.0 | 0.00 | 0.04 | 0.00 | 74 | 1014.3 |
| 20260903190520 | 87 | 244 | 1.0 | 5.0 | 0.00 | 0.04 | 0.00 | 75 | 1014.3 |
| 20260903190414 | 87 | 209 | 1.0 | 5.0 | 0.00 | 0.04 | 0.00 | 78 | 1014.3 |
| 20260903190311 | 87 | 236 | 1.0 | 5.0 | 0.00 | 0.04 | 0.00 | 77 | 1014.4 |
| 20260903190206 | 87 | 219 | 1.0 | 3.0 | 0.00 | 0.04 | 0.00 | 75 | 1014.3 |
| 20260903190101 | 87 | 229 | 1.0 | 3.0 | 0.00 | 0.04 | 0.00 | 75 | 1014.3 |
| 20260903185954 | 87 | 225 | 1.0 | 3.0 | 0.00 | 0.04 | 0.00 | 75 | 1014.3 |
| 20260903185850 | 87 | 221 | 1.0 | 3.0 | 0.00 | 0.04 | 0.00 | 74 | 1014.3 |
| 20260903185744 | 88 | 24 | 1.0 | 3.0 | 0.00 | 0.04 | 0.00 | 74 | 1014.4 |
| 20260903185639 | 88 | 254 | 0.0 | 3.0 | 0.00 | 0.04 | 0.00 | 74 | 1014.4 |
| 20260903185536 | 88 | 82 | 0.0 | 3.0 | 0.00 | 0.05 | 0.00 | 73 | 1014.4 |
| 20260903185433 | 88 | 113 | 1.0 | 3.0 | 0.00 | 0.05 | 0.00 | 73 | 1014.4 |
| 20260903185328 | 88 | 176 | 0.0 | 3.0 | 0.00 | 0.07 | 0.00 | 73 | 1014.5 |
| 20260903185224 | 88 | 103 | 0.0 | 3.0 | 0.00 | 0.08 | 0.00 | 74 | 1014.4 |
| 20260903185117 | 88 | 88 | 0.0 | 3.0 | 0.00 | 0.10 | 0.00 | 75 | 1014.4 |
| 20260903185010 | 87 | 136 | 0.0 | 3.0 | 0.00 | 0.13 | 0.00 | 75 | 1014.5 |
| 20260903184902 | 87 | 86 | 1.0 | 3.0 | 0.00 | 0.17 | 0.00 | 76 | 1014.5 |
| 20260903184756 | 87 | 123 | 1.0 | 3.0 | 0.00 | 0.21 | 0.00 | 76 | 1014.6 |
| 20260903184649 | 87 | 181 | 1.0 | 2.0 | 0.00 | 0.24 | 0.00 | 75 | 1014.6 |
| 20260903184326 | 88 | 125 | 0.0 | 2.0 | 0.00 | 0.30 | 0.00 | 74 | 1014.6 |
| 20260903184223 | 87 | 201 | 0.0 | 2.0 | 0.00 | 0.31 | 0.00 | 74 | 1014.6 |
| 20260903183859 | 87 | 254 | 0.0 | 6.0 | 0.00 | 0.31 | 0.00 | 74 | 1014.6 |
| 20260903183755 | 87 | 247 | 0.0 | 6.0 | 0.00 | 0.31 | 0.00 | 73 | 1014.6 |
| 20260903183430 | 87 | 194 | 0.0 | 6.0 | 0.00 | 0.32 | 0.00 | 76 | 1014.7 |
| 20260903183327 | 87 | 151 | 0.0 | 6.0 | 0.00 | 0.32 | 0.00 | 76 | 1014.6 |
| 20260903183223 | 87 | 155 | 0.0 | 6.0 | 0.00 | 0.32 | 0.00 | 75 | 1014.5 |
| 20260903183119 | 87 | 75 | 1.0 | 6.0 | 0.00 | 0.32 | 0.00 | 76 | 1014.6 |
| 20260903183014 | 87 | 22 | 1.0 | 6.0 | 0.00 | 0.32 | 0.00 | 74 | 1014.6 |
| 20260903182910 | 87 | 234 | 1.0 | 6.0 | 0.00 | 0.32 | 0.00 | 75 | 1014.7 |
| 20260903182806 | 87 | 130 | 1.0 | 6.0 | 0.00 | 0.32 | 0.00 | 75 | 1014.8 |
| 20260903182439 | 87 | 254 | 1.0 | 6.0 | 0.00 | 0.32 | 0.00 | 73 | 1014.9 |
| 20260903182333 | 87 | 191 | 1.0 | 6.0 | 0.00 | 0.32 | 0.00 | 71 | 1015.0 |
| 20260903182227 | 87 | 52 | 1.0 | 6.0 | 0.00 | 0.32 | 0.00 | 71 | 1015.0 |
| 20260903182125 | 87 | 221 | 1.0 | 6.0 | 0.00 | 0.32 | 0.00 | 73 | 1015.0 |
| 20260903182022 | 87 | 269 | 1.0 | 6.0 | 0.00 | 0.32 | 0.00 | 75 | 1015.0 |
| 20260903181658 | 86 | 165 | 1.0 | 2.0 | 0.00 | 0.32 | 0.00 | 77 | 1015.0 |
| 20260903181553 | 86 | 73 | 1.0 | 2.0 | 0.00 | 0.32 | 0.00 | 77 | 1015.0 |
| 20260903181446 | 86 | 107 | 1.0 | 2.0 | 0.00 | 0.32 | 0.00 | 78 | 1015.0 |
| 20260903181338 | 86 | 232 | 0.0 | 2.0 | 0.00 | 0.32 | 0.00 | 79 | 1015.1 |
| 20260903181014 | 85 | 259 | 0.0 | 2.0 | 0.00 | 0.32 | 0.00 | 76 | 1015.0 |
| 20260903180909 | 86 | 273 | 0.0 | 2.0 | 0.00 | 0.32 | 0.00 | 76 | 1015.0 |
| 20260903180802 | 86 | 285 | 0.0 | 2.0 | 0.00 | 0.32 | 0.00 | 77 | 1014.8 |
| 20260903180700 | 86 | 248 | 0.0 | 1.0 | 0.00 | 0.32 | 0.00 | 75 | 1014.6 |
| 20260903180554 | 86 | 217 | 0.0 | 1.0 | 0.00 | 0.32 | 0.00 | 76 | 1014.5 |
| 20260903180447 | 85 | 107 | 0.0 | 1.0 | 0.00 | 0.32 | 0.00 | 78 | 1014.5 |
| 20260903180341 | 86 | 107 | 0.0 | 1.0 | 0.00 | 0.32 | 0.00 | 78 | 1014.5 |
| 20260903180234 | 86 | 107 | 0.0 | 1.0 | 0.00 | 0.32 | 0.00 | 77 | 1014.6 |
| 20260903180128 | 86 | 149 | 0.0 | 2.0 | 0.00 | 0.32 | 0.00 | 75 | 1014.6 |
| 20260903180021 | 86 | 100 | 0.0 | 2.0 | 0.00 | 0.32 | 0.00 | 75 | 1014.7 |
| 20260903175915 | 86 | 89 | 0.0 | 2.0 | 0.00 | 0.32 | 0.00 | 72 | 1014.7 |
| 20260903175810 | 87 | 234 | 0.0 | 2.0 | 0.00 | 0.32 | 0.00 | 72 | 1014.9 |
| 20260903175706 | 87 | 234 | 0.0 | 2.0 | 0.00 | 0.32 | 0.00 | 73 | 1014.9 |
| 20260903175601 | 87 | 257 | 0.0 | 2.0 | 0.00 | 0.32 | 0.00 | 71 | 1014.9 |
| 20260903175455 | 87 | 206 | 0.0 | 2.0 | 0.00 | 0.32 | 0.00 | 76 | 1014.9 |
| 20260903175351 | 86 | 105 | 0.0 | 2.0 | 0.00 | 0.32 | 0.00 | 76 | 1015.0 |
| 20260903175249 | 86 | 126 | 0.0 | 2.0 | 0.00 | 0.32 | 0.00 | 75 | 1014.9 |
| 20260903175141 | 87 | 286 | 0.0 | 3.0 | 0.00 | 0.32 | 0.00 | 76 | 1014.9 |
| 20260903174557 | 87 | 142 | 0.0 | 3.0 | 0.00 | 0.32 | 0.00 | 74 | 1015.2 |
| 20260903174451 | 87 | 94 | 0.0 | 3.0 | 0.00 | 0.32 | 0.00 | 73 | 1015.3 |
| 20260903174127 | 86 | 62 | 0.0 | 3.0 | 0.00 | 0.32 | 0.00 | 74 | 1015.4 |
| 20260903174019 | 86 | 111 | 0.0 | 3.0 | 0.00 | 0.32 | 0.00 | 75 | 1015.5 |
| 20260903173915 | 86 | 90 | 0.0 | 3.0 | 0.00 | 0.32 | 0.00 | 77 | 1015.5 |
| 20260903173809 | 86 | 164 | 0.0 | 3.0 | 0.00 | 0.32 | 0.00 | 76 | 1015.5 |
| 20260903173706 | 86 | 234 | 0.0 | 3.0 | 0.00 | 0.32 | 0.00 | 76 | 1015.6 |
| 20260903173604 | 86 | 345 | 0.0 | 3.0 | 0.00 | 0.32 | 0.00 | 77 | 1015.7 |
| 20260903173457 | 86 | 121 | 0.0 | 3.0 | 0.00 | 0.32 | 0.00 | 78 | 1015.7 |
| 20260903173352 | 85 | 92 | 0.0 | 3.0 | 0.00 | 0.32 | 0.00 | 77 | 1015.8 |
| 20260903173244 | 85 | 203 | 0.0 | 3.0 | 0.00 | 0.32 | 0.00 | 77 | 1015.8 |
| 20260903173138 | 85 | 300 | 0.0 | 2.0 | 0.00 | 0.32 | 0.00 | 76 | 1015.8 |
| 20260903173035 | 85 | 300 | 0.0 | 2.0 | 0.00 | 0.32 | 0.00 | 76 | 1015.8 |
| 20260903172933 | 86 | 300 | 0.0 | 2.0 | 0.00 | 0.32 | 0.00 | 75 | 1015.7 |
| 20260903172607 | 86 | 261 | 0.0 | 1.0 | 0.00 | 0.32 | 0.00 | 75 | 1015.6 |
| 20260903172501 | 86 | 36 | 0.0 | 1.0 | 0.00 | 0.32 | 0.00 | 72 | 1015.5 |
| 20260903172141 | 85 | 71 | 0.0 | 2.0 | 0.00 | 0.32 | 0.00 | 77 | 1015.6 |
| 20260903172034 | 85 | 71 | 0.0 | 2.0 | 0.00 | 0.32 | 0.00 | 75 | 1015.6 |
| 20260903171931 | 85 | 11 | 0.0 | 2.0 | 0.00 | 0.32 | 0.00 | 75 | 1015.7 |
| 20260903171829 | 85 | 271 | 0.0 | 2.0 | 0.00 | 0.32 | 0.00 | 77 | 1015.7 |
| 20260903171723 | 85 | 68 | 0.0 | 2.0 | 0.00 | 0.32 | 0.00 | 77 | 1015.8 |
| 20260903171619 | 85 | 306 | 0.0 | 2.0 | 0.00 | 0.32 | 0.00 | 78 | 1015.8 |
| 20260903171512 | 85 | 306 | 0.0 | 2.0 | 0.00 | 0.32 | 0.00 | 80 | 1015.9 |
| 20260903171407 | 85 | 53 | 0.0 | 2.0 | 0.00 | 0.32 | 0.00 | 82 | 1015.9 |
| 20260903171301 | 85 | 53 | 0.0 | 2.0 | 0.00 | 0.32 | 0.00 | 80 | 1016.0 |
| 20260903171158 | 85 | 53 | 0.0 | 2.0 | 0.00 | 0.32 | 0.00 | 80 | 1016.0 |
| 20260903171051 | 85 | 88 | 0.0 | 2.0 | 0.00 | 0.32 | 0.00 | 74 | 1016.1 |
| 20260903170945 | 84 | 88 | 0.0 | 2.0 | 0.00 | 0.32 | 0.00 | 75 | 1016.1 |
| 20260903170840 | 84 | 121 | 0.0 | 2.0 | 0.00 | 0.32 | 0.00 | 74 | 1016.1 |
| 20260903170733 | 85 | 132 | 0.0 | 2.0 | 0.00 | 0.32 | 0.00 | 74 | 1016.1 |
| 20260903170629 | 85 | 148 | 0.0 | 2.0 | 0.00 | 0.32 | 0.00 | 75 | 1016.2 |
| 20260903170521 | 85 | 128 | 0.0 | 2.0 | 0.00 | 0.32 | 0.00 | 77 | 1016.2 |
| 20260903170415 | 84 | 115 | 0.0 | 2.0 | 0.00 | 0.32 | 0.00 | 79 | 1016.2 |
| 20260903170313 | 84 | 63 | 0.0 | 2.0 | 0.00 | 0.32 | 0.00 | 79 | 1016.3 |
| 20260903165945 | 83 | 250 | 0.0 | 3.0 | 0.00 | 0.32 | 0.00 | 79 | 1016.4 |
| 20260903165838 | 83 | 172 | 0.0 | 3.0 | 0.00 | 0.32 | 0.00 | 79 | 1016.5 |
| 20260903165035 | 84 | 268 | 0.0 | 4.0 | 0.00 | 0.32 | 0.00 | 77 | 1016.6 |
| 20260903164930 | 84 | 113 | 0.0 | 4.0 | 0.00 | 0.32 | 0.00 | 77 | 1016.5 |
| 20260903164826 | 84 | 322 | 1.0 | 4.0 | 0.00 | 0.32 | 0.00 | 78 | 1016.5 |
| 20260903164242 | 84 | 9 | 1.0 | 4.0 | 0.00 | 0.32 | 0.00 | 79 | 1016.6 |
| 20260903164140 | 83 | 34 | 1.0 | 4.0 | 0.00 | 0.32 | 0.00 | 79 | 1016.6 |
| 20260903164035 | 83 | 153 | 1.0 | 4.0 | 0.00 | 0.32 | 0.00 | 79 | 1016.7 |
| 20260903163931 | 83 | 44 | 1.0 | 4.0 | 0.00 | 0.32 | 0.00 | 80 | 1016.7 |
| 20260903163826 | 83 | 83 | 1.0 | 4.0 | 0.00 | 0.32 | 0.00 | 78 | 1016.7 |
| 20260903163722 | 83 | 111 | 1.0 | 4.0 | 0.00 | 0.32 | 0.00 | 79 | 1016.5 |
| 20260903163618 | 84 | 80 | 0.0 | 4.0 | 0.00 | 0.32 | 0.00 | 79 | 1016.6 |
| 20260903163515 | 83 | 80 | 0.0 | 4.0 | 0.00 | 0.32 | 0.00 | 80 | 1016.6 |
| 20260903163147 | 83 | 76 | 0.0 | 3.0 | 0.00 | 0.32 | 0.00 | 80 | 1016.7 |
| 20260903163043 | 83 | 281 | 0.0 | 2.0 | 0.00 | 0.32 | 0.00 | 81 | 1016.8 |
| 20260903162938 | 83 | 238 | 0.0 | 2.0 | 0.00 | 0.32 | 0.00 | 82 | 1016.7 |
| 20260903162832 | 83 | 340 | 0.0 | 2.0 | 0.00 | 0.32 | 0.00 | 82 | 1016.8 |
| 20260903162729 | 83 | 309 | 0.0 | 2.0 | 0.00 | 0.32 | 0.00 | 82 | 1016.8 |
| 20260903162624 | 83 | 63 | 0.0 | 2.0 | 0.00 | 0.32 | 0.00 | 83 | 1016.8 |
| 20260903162519 | 83 | 63 | 0.0 | 2.0 | 0.00 | 0.32 | 0.00 | 83 | 1016.8 |
| 20260903162158 | 82 | 103 | 0.0 | 2.0 | 0.00 | 0.32 | 0.00 | 83 | 1016.8 |
| 20260903162052 | 82 | 269 | 0.0 | 2.0 | 0.00 | 0.32 | 0.00 | 86 | 1016.8 |
| 20260903161947 | 82 | 346 | 0.0 | 2.0 | 0.00 | 0.32 | 0.00 | 83 | 1016.8 |
| 20260903161842 | 82 | 107 | 0.0 | 2.0 | 0.00 | 0.32 | 0.00 | 85 | 1016.8 |
| 20260903161738 | 82 | 22 | 0.0 | 2.0 | 0.00 | 0.32 | 0.00 | 86 | 1016.8 |
| 20260903161634 | 81 | 0 | 0.0 | 2.0 | 0.00 | 0.32 | 0.00 | 85 | 1016.9 |
| 20260903161527 | 81 | 53 | 0.0 | 2.0 | 0.00 | 0.32 | 0.00 | 85 | 1016.9 |
| 20260903161424 | 82 | 101 | 0.0 | 2.0 | 0.00 | 0.32 | 0.00 | 83 | 1016.9 |
| 20260903161322 | 82 | 101 | 0.0 | 2.0 | 0.00 | 0.32 | 0.00 | 83 | 1016.8 |
| 20260903161215 | 82 | 168 | 0.0 | 2.0 | 0.00 | 0.32 | 0.00 | 82 | 1016.8 |
| 20260903161112 | 82 | 171 | 0.0 | 2.0 | 0.00 | 0.32 | 0.00 | 85 | 1016.8 |
| 20260903160749 | 82 | 76 | 0.0 | 2.0 | 0.00 | 0.32 | 0.00 | 87 | 1017.1 |
| 20260903160424 | 82 | 62 | 0.0 | 2.0 | 0.00 | 0.32 | 0.00 | 86 | 1017.2 |
| 20260903155844 | 82 | 18 | 0.0 | 2.0 | 0.00 | 0.32 | 0.00 | 85 | 1017.1 |
| 20260903155741 | 82 | 22 | 0.0 | 2.0 | 0.00 | 0.32 | 0.00 | 86 | 1017.1 |
| 20260903155639 | 82 | 355 | 0.0 | 2.0 | 0.00 | 0.32 | 0.00 | 85 | 1017.1 |
| 20260903155533 | 82 | 355 | 0.0 | 2.0 | 0.00 | 0.32 | 0.00 | 84 | 1017.1 |
| 20260903155430 | 82 | 355 | 0.0 | 2.0 | 0.00 | 0.32 | 0.00 | 85 | 1017.1 |
| 20260903155107 | 82 | 355 | 0.0 | 2.0 | 0.00 | 0.32 | 0.00 | 85 | 1017.1 |
| 20260903155002 | 82 | 355 | 0.0 | 2.0 | 0.00 | 0.32 | 0.00 | 86 | 1017.0 |
| 20260903154854 | 82 | 355 | 0.0 | 1.0 | 0.00 | 0.32 | 0.00 | 85 | 1016.9 |
| 20260903154747 | 82 | 5 | 0.0 | 1.0 | 0.00 | 0.32 | 0.00 | 85 | 1016.9 |
| 20260903154642 | 82 | 26 | 0.0 | 0.0 | 0.00 | 0.32 | 0.00 | 86 | 1016.8 |
| 20260903154540 | 82 | 26 | 0.0 | 0.0 | 0.00 | 0.32 | 0.00 | 86 | 1016.8 |
| 20260903154437 | 82 | 26 | 0.0 | 0.0 | 0.00 | 0.32 | 0.00 | 86 | 1016.8 |
| 20260903153852 | 81 | 26 | 0.0 | 2.0 | 0.00 | 0.32 | 0.00 | 85 | 1016.7 |
| 20260903153749 | 81 | 26 | 0.0 | 2.0 | 0.00 | 0.32 | 0.00 | 85 | 1016.7 |
| 20260903153426 | 81 | 34 | 0.0 | 2.0 | 0.00 | 0.32 | 0.00 | 86 | 1016.8 |
| 20260903153318 | 81 | 34 | 0.0 | 2.0 | 0.00 | 0.32 | 0.00 | 86 | 1016.8 |
| 20260903153214 | 81 | 243 | 0.0 | 2.0 | 0.00 | 0.32 | 0.00 | 87 | 1016.9 |
| 20260903152629 | 80 | 145 | 0.0 | 2.0 | 0.00 | 0.32 | 0.00 | 88 | 1016.7 |
| 20260903152522 | 80 | 146 | 0.0 | 2.0 | 0.00 | 0.32 | 0.00 | 88 | 1016.8 |
| 20260903152421 | 80 | 194 | 0.0 | 2.0 | 0.00 | 0.32 | 0.00 | 88 | 1016.7 |
| 20260903152316 | 80 | 10 | 0.0 | 1.0 | 0.00 | 0.32 | 0.00 | 87 | 1016.8 |
| 20260903152210 | 80 | 10 | 0.0 | 1.0 | 0.00 | 0.32 | 0.00 | 87 | 1016.8 |
| 20260903152104 | 80 | 10 | 0.0 | 1.0 | 0.00 | 0.32 | 0.00 | 87 | 1016.8 |
| 20260903152000 | 80 | 10 | 0.0 | 1.0 | 0.00 | 0.32 | 0.00 | 88 | 1016.7 |
| 20260903151857 | 79 | 19 | 0.0 | 1.0 | 0.00 | 0.32 | 0.00 | 89 | 1016.8 |
| 20260903151752 | 80 | 251 | 0.0 | 1.0 | 0.00 | 0.32 | 0.00 | 89 | 1016.8 |
| 20260903151649 | 79 | 269 | 0.0 | 1.0 | 0.00 | 0.32 | 0.00 | 88 | 1016.7 |
| 20260903151542 | 79 | 121 | 0.0 | 1.0 | 0.00 | 0.32 | 0.00 | 89 | 1016.7 |
| 20260903151437 | 79 | 117 | 0.0 | 1.0 | 0.00 | 0.32 | 0.00 | 89 | 1016.8 |
| 20260903151331 | 79 | 325 | 0.0 | 1.0 | 0.00 | 0.32 | 0.00 | 90 | 1016.8 |
| 20260903151010 | 79 | 325 | 0.0 | 1.0 | 0.00 | 0.32 | 0.00 | 90 | 1016.8 |
| 20260903150904 | 79 | 325 | 0.0 | 1.0 | 0.00 | 0.32 | 0.00 | 90 | 1016.8 |
| 20260903150536 | 79 | 325 | 0.0 | 1.0 | 0.00 | 0.32 | 0.00 | 89 | 1016.8 |
| 20260903150430 | 79 | 325 | 0.0 | 1.0 | 0.00 | 0.32 | 0.00 | 89 | 1016.9 |
| 20260903150327 | 79 | 325 | 0.0 | 1.0 | 0.00 | 0.32 | 0.00 | 89 | 1016.8 |
| 20260903150222 | 79 | 27 | 0.0 | 1.0 | 0.00 | 0.32 | 0.00 | 89 | 1016.8 |
| 20260903150114 | 79 | 355 | 0.0 | 1.0 | 0.00 | 0.32 | 0.00 | 89 | 1016.8 |
| 20260903150007 | 79 | 355 | 0.0 | 1.0 | 0.00 | 0.32 | 0.00 | 90 | 1016.7 |
| 20260903145906 | 79 | 179 | 0.0 | 1.0 | 0.00 | 0.32 | 0.00 | 89 | 1016.7 |
| 20260903145803 | 79 | 186 | 0.0 | 1.0 | 0.00 | 0.32 | 0.00 | 89 | 1016.7 |
| 20260903145658 | 79 | 209 | 0.0 | 1.0 | 0.00 | 0.32 | 0.00 | 91 | 1016.7 |
| 20260903145336 | 78 | 306 | 0.0 | 0.0 | 0.00 | 0.32 | 0.00 | 91 | 1016.8 |
| 20260903145230 | 78 | 180 | 0.0 | 0.0 | 0.00 | 0.32 | 0.00 | 91 | 1016.7 |
| 20260903145125 | 78 | 180 | 0.0 | 2.0 | 0.00 | 0.32 | 0.00 | 92 | 1016.8 |
| 20260903145018 | 78 | 180 | 0.0 | 2.0 | 0.00 | 0.32 | 0.00 | 92 | 1016.8 |
| 20260903144914 | 78 | 127 | 0.0 | 2.0 | 0.00 | 0.32 | 0.00 | 93 | 1016.8 |
| 20260903144809 | 77 | 127 | 0.0 | 2.0 | 0.00 | 0.32 | 0.00 | 93 | 1016.8 |
| 20260903144703 | 77 | 127 | 0.0 | 2.0 | 0.00 | 0.32 | 0.00 | 93 | 1016.9 |
| 20260903144337 | 77 | 5 | 0.0 | 2.0 | 0.00 | 0.32 | 0.00 | 94 | 1016.9 |
| 20260903144235 | 77 | 5 | 0.0 | 2.0 | 0.00 | 0.32 | 0.00 | 94 | 1016.9 |
| 20260903144129 | 76 | 227 | 0.0 | 2.0 | 0.00 | 0.32 | 0.00 | 94 | 1016.9 |
| 20260903144022 | 76 | 227 | 0.0 | 2.0 | 0.00 | 0.32 | 0.00 | 95 | 1016.9 |
| 20260903143916 | 76 | 227 | 0.0 | 2.0 | 0.00 | 0.32 | 0.00 | 95 | 1016.9 |
| 20260903143814 | 76 | 227 | 0.0 | 2.0 | 0.00 | 0.32 | 0.00 | 96 | 1016.9 |
| 20260903143711 | 76 | 94 | 0.0 | 1.0 | 0.00 | 0.32 | 0.00 | 96 | 1016.8 |
| 20260903143348 | 76 | 45 | 0.0 | 1.0 | 0.00 | 0.32 | 0.00 | 96 | 1016.7 |
| 20260903143243 | 76 | 82 | 0.0 | 0.0 | 0.00 | 0.32 | 0.00 | 96 | 1016.7 |
| 20260903143137 | 75 | 137 | 0.0 | 0.0 | 0.00 | 0.32 | 0.00 | 96 | 1016.7 |
| 20260903142818 | 75 | 137 | 0.0 | 1.0 | 0.00 | 0.32 | 0.00 | 97 | 1016.6 |
| 20260903142714 | 75 | 198 | 0.0 | 1.0 | 0.00 | 0.32 | 0.00 | 97 | 1016.6 |
| 20260903142130 | 75 | 103 | 0.0 | 2.0 | 0.00 | 0.32 | 0.00 | 97 | 1016.7 |
| 20260903142026 | 75 | 103 | 0.0 | 2.0 | 0.00 | 0.32 | 0.00 | 97 | 1016.6 |
| 20260903141918 | 75 | 103 | 0.0 | 2.0 | 0.00 | 0.32 | 0.00 | 97 | 1016.6 |
| 20260903141812 | 75 | 103 | 0.0 | 2.0 | 0.00 | 0.32 | 0.00 | 97 | 1016.6 |
| 20260903141706 | 75 | 103 | 0.0 | 2.0 | 0.00 | 0.32 | 0.00 | 97 | 1016.5 |
| 20260903141604 | 75 | 291 | 0.0 | 2.0 | 0.00 | 0.32 | 0.00 | 97 | 1016.5 |
| 20260903141458 | 75 | 9 | 0.0 | 2.0 | 0.00 | 0.32 | 0.00 | 97 | 1016.5 |
| 20260903141352 | 75 | 34 | 0.0 | 2.0 | 0.00 | 0.32 | 0.00 | 97 | 1016.4 |
| 20260903141247 | 75 | 11 | 0.0 | 1.0 | 0.00 | 0.32 | 0.00 | 97 | 1016.4 |
| 20260903141142 | 75 | 114 | 0.0 | 0.0 | 0.00 | 0.32 | 0.00 | 97 | 1016.4 |
| 20260903140604 | 75 | 260 | 0.0 | 0.0 | 0.00 | 0.32 | 0.00 | 98 | 1016.4 |
| 20260903140457 | 74 | 210 | 0.0 | 0.0 | 0.00 | 0.32 | 0.00 | 98 | 1016.4 |
| 20260903140350 | 75 | 210 | 0.0 | 0.0 | 0.00 | 0.32 | 0.00 | 98 | 1016.3 |
| 20260903140246 | 75 | 210 | 0.0 | 0.0 | 0.00 | 0.32 | 0.00 | 98 | 1016.3 |
| 20260903140142 | 74 | 261 | 0.0 | 0.0 | 0.00 | 0.32 | 0.00 | 98 | 1016.3 |
| 20260903140037 | 74 | 300 | 0.0 | 0.0 | 0.00 | 0.32 | 0.00 | 98 | 1016.3 |
| 20260903135929 | 74 | 276 | 0.0 | 0.0 | 0.00 | 0.32 | 0.00 | 98 | 1016.3 |
| 20260903135824 | 74 | 276 | 0.0 | 0.0 | 0.00 | 0.32 | 0.00 | 98 | 1016.3 |
| 20260903135717 | 74 | 276 | 0.0 | 0.0 | 0.00 | 0.32 | 0.00 | 97 | 1016.3 |
| 20260903135613 | 74 | 276 | 0.0 | 0.0 | 0.00 | 0.32 | 0.00 | 97 | 1016.4 |
| 20260903135509 | 74 | 276 | 0.0 | 0.0 | 0.00 | 0.32 | 0.00 | 97 | 1016.4 |
| 20260903134704 | 74 | 271 | 0.0 | 1.0 | 0.00 | 0.32 | 0.00 | 98 | 1016.4 |
| 20260903134557 | 74 | 271 | 0.0 | 1.0 | 0.00 | 0.32 | 0.00 | 98 | 1016.4 |
| 20260903134450 | 74 | 271 | 0.0 | 1.0 | 0.00 | 0.32 | 0.00 | 98 | 1016.4 |
| 20260903134343 | 74 | 299 | 0.0 | 1.0 | 0.00 | 0.32 | 0.00 | 98 | 1016.4 |
| 20260903134238 | 74 | 284 | 0.0 | 1.0 | 0.00 | 0.32 | 0.00 | 98 | 1016.4 |
| 20260903134134 | 74 | 272 | 0.0 | 1.0 | 0.00 | 0.32 | 0.00 | 98 | 1016.4 |
| 20260903134029 | 74 | 22 | 0.0 | 0.0 | 0.00 | 0.32 | 0.00 | 98 | 1016.3 |
| 20260903133923 | 74 | 22 | 0.0 | 0.0 | 0.00 | 0.32 | 0.00 | 98 | 1016.4 |
| 20260903133816 | 74 | 22 | 0.0 | 0.0 | 0.00 | 0.32 | 0.00 | 98 | 1016.5 |
| 20260903133714 | 74 | 22 | 0.0 | 0.0 | 0.00 | 0.32 | 0.00 | 98 | 1016.5 |
| 20260903133608 | 74 | 22 | 0.0 | 0.0 | 0.00 | 0.32 | 0.00 | 98 | 1016.6 |
| 20260903133022 | 74 | 22 | 0.0 | 0.0 | 0.00 | 0.32 | 0.00 | 97 | 1016.6 |
| 20260903132917 | 74 | 22 | 0.0 | 0.0 | 0.00 | 0.32 | 0.00 | 98 | 1016.6 |
| 20260903132810 | 74 | 22 | 0.0 | 0.0 | 0.00 | 0.32 | 0.00 | 97 | 1016.7 |
| 20260903132443 | 74 | 22 | 0.0 | 1.0 | 0.00 | 0.32 | 0.00 | 97 | 1016.7 |
| 20260903132336 | 74 | 22 | 0.0 | 1.0 | 0.00 | 0.32 | 0.00 | 97 | 1016.8 |
| 20260903132231 | 74 | 65 | 0.0 | 0.0 | 0.00 | 0.32 | 0.00 | 98 | 1016.8 |
| 20260903132126 | 74 | 252 | 0.0 | 0.0 | 0.00 | 0.32 | 0.00 | 97 | 1016.8 |
| 20260903132018 | 74 | 252 | 0.0 | 0.0 | 0.00 | 0.32 | 0.00 | 98 | 1016.9 |
| 20260903131913 | 74 | 252 | 0.0 | 0.0 | 0.00 | 0.32 | 0.00 | 98 | 1016.9 |
| 20260903131810 | 74 | 252 | 0.0 | 0.0 | 0.00 | 0.32 | 0.00 | 98 | 1017.0 |
| 20260903131705 | 74 | 252 | 0.0 | 0.0 | 0.00 | 0.32 | 0.00 | 98 | 1017.0 |
| 20260903131601 | 74 | 252 | 0.0 | 1.0 | 0.00 | 0.32 | 0.00 | 98 | 1017.0 |
| 20260903131459 | 74 | 252 | 0.0 | 1.0 | 0.00 | 0.32 | 0.00 | 98 | 1016.9 |
| 20260903131357 | 74 | 44 | 0.0 | 1.0 | 0.00 | 0.32 | 0.00 | 98 | 1016.9 |
| 20260903131250 | 73 | 344 | 0.0 | 1.0 | 0.00 | 0.32 | 0.00 | 98 | 1016.9 |
| 20260903131145 | 73 | 344 | 0.0 | 1.0 | 0.00 | 0.32 | 0.00 | 98 | 1016.9 |
| 20260903131038 | 73 | 299 | 0.0 | 1.0 | 0.00 | 0.32 | 0.00 | 98 | 1017.0 |
| 20260903130453 | 73 | 109 | 0.0 | 1.0 | 0.00 | 0.32 | 0.00 | 97 | 1017.2 |
| 20260903130347 | 73 | 109 | 0.0 | 1.0 | 0.00 | 0.32 | 0.00 | 97 | 1017.3 |
| 20260903125801 | 73 | 336 | 0.0 | 0.0 | 0.00 | 0.32 | 0.00 | 97 | 1017.4 |
| 20260903125657 | 73 | 334 | 0.0 | 0.0 | 0.00 | 0.32 | 0.00 | 97 | 1017.5 |
| 20260903125555 | 73 | 334 | 0.0 | 0.0 | 0.00 | 0.32 | 0.00 | 97 | 1017.5 |
| 20260903125449 | 73 | 334 | 0.0 | 0.0 | 0.00 | 0.32 | 0.00 | 97 | 1017.5 |
| 20260903125345 | 73 | 334 | 0.0 | 0.0 | 0.00 | 0.32 | 0.00 | 98 | 1017.6 |
| 20260903125242 | 73 | 334 | 0.0 | 0.0 | 0.00 | 0.32 | 0.00 | 98 | 1017.5 |
| 20260903125138 | 73 | 334 | 0.0 | 0.0 | 0.00 | 0.32 | 0.00 | 97 | 1017.6 |
| 20260903125036 | 73 | 334 | 0.0 | 0.0 | 0.00 | 0.32 | 0.00 | 97 | 1017.6 |
| 20260903124929 | 73 | 334 | 0.0 | 0.0 | 0.00 | 0.32 | 0.00 | 98 | 1017.6 |
| 20260903124823 | 73 | 334 | 0.0 | 0.0 | 0.00 | 0.32 | 0.00 | 98 | 1017.6 |
| 20260903124720 | 73 | 334 | 0.0 | 0.0 | 0.00 | 0.32 | 0.00 | 98 | 1017.6 |
| 20260903124614 | 73 | 334 | 0.0 | 0.0 | 0.00 | 0.32 | 0.00 | 98 | 1017.7 |
| 20260903124507 | 73 | 334 | 0.0 | 0.0 | 0.00 | 0.32 | 0.00 | 98 | 1017.6 |
| 20260903124403 | 73 | 324 | 0.0 | 0.0 | 0.00 | 0.32 | 0.00 | 98 | 1017.6 |
| 20260903123555 | 72 | 24 | 0.0 | 1.0 | 0.00 | 0.32 | 0.00 | 97 | 1017.6 |
| 20260903123451 | 72 | 24 | 0.0 | 1.0 | 0.00 | 0.32 | 0.00 | 98 | 1017.6 |
| 20260903123344 | 72 | 24 | 0.0 | 1.0 | 0.00 | 0.32 | 0.00 | 97 | 1017.6 |
| 20260903123239 | 72 | 308 | 0.0 | 1.0 | 0.00 | 0.32 | 0.00 | 97 | 1017.7 |
| 20260903122912 | 72 | 5 | 0.0 | 1.0 | 0.00 | 0.32 | 0.00 | 97 | 1017.6 |
| 20260903122805 | 72 | 5 | 0.0 | 1.0 | 0.00 | 0.32 | 0.00 | 97 | 1017.6 |
| 20260903122700 | 72 | 19 | 0.0 | 0.0 | 0.00 | 0.32 | 0.00 | 97 | 1017.6 |
| 20260903122554 | 72 | 19 | 0.0 | 0.0 | 0.00 | 0.32 | 0.00 | 97 | 1017.6 |
| 20260903122448 | 72 | 19 | 0.0 | 0.0 | 0.00 | 0.32 | 0.00 | 97 | 1017.6 |
| 20260903122342 | 72 | 19 | 0.0 | 2.0 | 0.00 | 0.32 | 0.00 | 97 | 1017.6 |
| 20260903122235 | 72 | 19 | 0.0 | 2.0 | 0.00 | 0.32 | 0.00 | 97 | 1017.7 |
| 20260903122131 | 72 | 19 | 0.0 | 2.0 | 0.00 | 0.32 | 0.00 | 97 | 1017.7 |
| 20260903122026 | 72 | 19 | 0.0 | 2.0 | 0.00 | 0.32 | 0.00 | 97 | 1017.6 |
| 20260903121439 | 72 | 22 | 0.0 | 2.0 | 0.00 | 0.32 | 0.00 | 97 | 1017.6 |
| 20260903121335 | 72 | 87 | 0.0 | 2.0 | 0.00 | 0.32 | 0.00 | 97 | 1017.6 |
| 20260903121227 | 72 | 36 | 0.0 | 2.0 | 0.00 | 0.32 | 0.00 | 97 | 1017.6 |
| 20260903120901 | 72 | 62 | 0.0 | 2.0 | 0.00 | 0.32 | 0.00 | 97 | 1017.5 |
| 20260903120754 | 72 | 5 | 0.0 | 2.0 | 0.00 | 0.32 | 0.00 | 97 | 1017.5 |
| 20260903120431 | 72 | 11 | 0.0 | 2.0 | 0.00 | 0.32 | 0.00 | 97 | 1017.4 |
| 20260903120323 | 72 | 0 | 0.0 | 2.0 | 0.00 | 0.32 | 0.00 | 97 | 1017.4 |
| 20260903120216 | 72 | 63 | 0.0 | 2.0 | 0.00 | 0.32 | 0.00 | 97 | 1017.4 |
| 20260903120109 | 72 | 24 | 0.0 | 2.0 | 0.00 | 0.32 | 0.00 | 97 | 1017.4 |
| 20260903120002 | 72 | 26 | 0.0 | 2.0 | 0.00 | 0.32 | 0.00 | 97 | 1017.5 |
| 20260903115856 | 72 | 355 | 0.0 | 2.0 | 0.00 | 0.32 | 0.00 | 97 | 1017.5 |
| 20260903115753 | 72 | 355 | 0.0 | 2.0 | 0.00 | 0.32 | 0.00 | 97 | 1017.5 |
| 20260903115649 | 72 | 355 | 0.0 | 3.0 | 0.00 | 0.32 | 0.00 | 97 | 1017.5 |
| 20260903115541 | 72 | 33 | 0.0 | 3.0 | 0.00 | 0.32 | 0.00 | 97 | 1017.5 |
| 20260903115215 | 72 | 348 | 0.0 | 3.0 | 0.00 | 0.32 | 0.00 | 97 | 1017.6 |
| 20260903115111 | 72 | 5 | 0.0 | 3.0 | 0.00 | 0.32 | 0.00 | 97 | 1017.6 |
| 20260903115004 | 72 | 5 | 0.0 | 3.0 | 0.00 | 0.32 | 0.00 | 97 | 1017.6 |
| 20260903114859 | 72 | 58 | 0.0 | 3.0 | 0.00 | 0.32 | 0.00 | 97 | 1017.5 |
| 20260903114754 | 72 | 58 | 0.0 | 3.0 | 0.00 | 0.32 | 0.00 | 97 | 1017.5 |
| 20260903114651 | 72 | 52 | 0.0 | 3.0 | 0.00 | 0.32 | 0.00 | 97 | 1017.5 |
| 20260903114325 | 72 | 30 | 0.0 | 3.0 | 0.00 | 0.32 | 0.00 | 97 | 1017.5 |
| 20260903114218 | 72 | 26 | 0.0 | 3.0 | 0.00 | 0.32 | 0.00 | 97 | 1017.5 |
| 20260903114112 | 72 | 16 | 0.0 | 3.0 | 0.00 | 0.32 | 0.00 | 97 | 1017.5 |
| 20260903114006 | 72 | 17 | 0.0 | 3.0 | 0.00 | 0.32 | 0.00 | 97 | 1017.5 |
| 20260903113901 | 72 | 71 | 0.0 | 3.0 | 0.00 | 0.32 | 0.00 | 97 | 1017.4 |
| 20260903113753 | 72 | 19 | 0.0 | 3.0 | 0.00 | 0.32 | 0.00 | 97 | 1017.5 |
| 20260903113646 | 72 | 349 | 0.0 | 1.0 | 0.00 | 0.32 | 0.00 | 97 | 1017.4 |
| 20260903113320 | 72 | 32 | 0.0 | 1.0 | 0.00 | 0.32 | 0.00 | 97 | 1017.3 |
| 20260903112959 | 72 | 349 | 0.0 | 2.0 | 0.00 | 0.32 | 0.00 | 97 | 1017.1 |
| 20260903112855 | 72 | 113 | 0.0 | 2.0 | 0.00 | 0.32 | 0.00 | 97 | 1017.1 |
| 20260903112753 | 72 | 61 | 0.0 | 2.0 | 0.00 | 0.32 | 0.00 | 97 | 1017.1 |
| 20260903112428 | 72 | 347 | 0.0 | 2.0 | 0.00 | 0.32 | 0.00 | 97 | 1017.1 |
| 20260903111850 | 72 | 296 | 0.0 | 1.0 | 0.00 | 0.32 | 0.00 | 97 | 1016.7 |
| 20260903111745 | 72 | 296 | 0.0 | 1.0 | 0.00 | 0.32 | 0.00 | 97 | 1016.6 |
| 20260903111639 | 72 | 296 | 0.0 | 1.0 | 0.00 | 0.32 | 0.00 | 97 | 1016.6 |
| 20260903111537 | 72 | 296 | 0.0 | 1.0 | 0.00 | 0.32 | 0.00 | 97 | 1016.6 |
| 20260903111215 | 72 | 257 | 0.0 | 1.0 | 0.00 | 0.32 | 0.00 | 97 | 1016.5 |
| 20260903111108 | 72 | 355 | 0.0 | 0.0 | 0.00 | 0.32 | 0.00 | 97 | 1016.6 |
| 20260903111003 | 72 | 342 | 0.0 | 0.0 | 0.00 | 0.32 | 0.00 | 97 | 1016.7 |
| 20260903110856 | 72 | 342 | 0.0 | 0.0 | 0.00 | 0.32 | 0.00 | 97 | 1016.7 |
| 20260903110749 | 72 | 342 | 0.0 | 0.0 | 0.00 | 0.32 | 0.00 | 97 | 1016.6 |
| 20260903110644 | 72 | 342 | 0.0 | 0.0 | 0.00 | 0.32 | 0.00 | 97 | 1016.6 |
| 20260903110317 | 72 | 286 | 0.0 | 2.0 | 0.00 | 0.32 | 0.00 | 97 | 1016.5 |
| 20260903110211 | 72 | 350 | 0.0 | 1.0 | 0.00 | 0.32 | 0.00 | 97 | 1016.5 |
| 20260903110106 | 72 | 350 | 0.0 | 1.0 | 0.00 | 0.32 | 0.00 | 97 | 1016.5 |
| 20260903110000 | 72 | 350 | 0.0 | 1.0 | 0.00 | 0.32 | 0.00 | 97 | 1016.4 |
| 20260903105854 | 72 | 350 | 0.0 | 1.0 | 0.00 | 0.32 | 0.00 | 97 | 1016.3 |
| 20260903105747 | 72 | 350 | 0.0 | 1.0 | 0.00 | 0.32 | 0.00 | 97 | 1016.3 |
| 20260903105641 | 72 | 350 | 0.0 | 1.0 | 0.00 | 0.32 | 0.00 | 97 | 1016.2 |
| 20260903105537 | 72 | 350 | 0.0 | 1.0 | 0.00 | 0.32 | 0.00 | 97 | 1016.2 |
| 20260903105214 | 71 | 315 | 0.0 | 0.0 | 0.00 | 0.32 | 0.00 | 97 | 1016.0 |
| 20260903105110 | 71 | 315 | 0.0 | 0.0 | 0.00 | 0.32 | 0.00 | 97 | 1016.0 |
| 20260903105004 | 71 | 315 | 0.0 | 0.0 | 0.00 | 0.32 | 0.00 | 97 | 1015.9 |
| 20260903104900 | 71 | 315 | 0.0 | 0.0 | 0.00 | 0.32 | 0.00 | 97 | 1015.9 |
| 20260903104534 | 71 | 274 | 0.0 | 0.0 | 0.00 | 0.32 | 0.00 | 97 | 1015.8 |
| 20260903104431 | 71 | 274 | 0.0 | 0.0 | 0.00 | 0.32 | 0.00 | 97 | 1015.8 |
| 20260903104329 | 71 | 274 | 0.0 | 0.0 | 0.00 | 0.32 | 0.00 | 97 | 1015.8 |
| 20260903104224 | 71 | 274 | 0.0 | 0.0 | 0.00 | 0.32 | 0.00 | 97 | 1015.8 |
| 20260903104117 | 71 | 274 | 0.0 | 0.0 | 0.00 | 0.32 | 0.00 | 97 | 1015.8 |
| 20260903104009 | 71 | 274 | 0.0 | 0.0 | 0.00 | 0.32 | 0.00 | 97 | 1015.7 |
| 20260903103905 | 71 | 274 | 0.0 | 0.0 | 0.00 | 0.32 | 0.00 | 97 | 1015.7 |
| 20260903103803 | 71 | 274 | 0.0 | 0.0 | 0.00 | 0.32 | 0.00 | 97 | 1015.7 |
| 20260903103656 | 71 | 274 | 0.0 | 0.0 | 0.00 | 0.32 | 0.00 | 97 | 1015.7 |
| 20260903103549 | 71 | 274 | 0.0 | 0.0 | 0.00 | 0.32 | 0.00 | 97 | 1015.7 |
| 20260903103446 | 71 | 274 | 0.0 | 0.0 | 0.00 | 0.32 | 0.00 | 97 | 1015.6 |
| 20260903103342 | 71 | 274 | 0.0 | 0.0 | 0.00 | 0.32 | 0.00 | 97 | 1015.6 |
| 20260903103235 | 71 | 274 | 0.0 | 0.0 | 0.00 | 0.32 | 0.00 | 97 | 1015.5 |
| 20260903103130 | 71 | 274 | 0.0 | 0.0 | 0.00 | 0.32 | 0.00 | 97 | 1015.5 |
| 20260903102545 | 71 | 274 | 0.0 | 0.0 | 0.00 | 0.32 | 0.00 | 97 | 1015.5 |
| 20260903102439 | 71 | 274 | 0.0 | 0.0 | 0.00 | 0.32 | 0.00 | 97 | 1015.5 |
| 20260903102335 | 71 | 274 | 0.0 | 0.0 | 0.00 | 0.32 | 0.00 | 97 | 1015.4 |
| 20260903102229 | 71 | 274 | 0.0 | 0.0 | 0.00 | 0.32 | 0.00 | 97 | 1015.4 |
| 20260903102122 | 71 | 274 | 0.0 | 0.0 | 0.00 | 0.32 | 0.00 | 97 | 1015.5 |
| 20260903102018 | 71 | 274 | 0.0 | 0.0 | 0.00 | 0.32 | 0.00 | 97 | 1015.4 |
| 20260903101912 | 71 | 274 | 0.0 | 0.0 | 0.00 | 0.32 | 0.00 | 97 | 1015.5 |
| 20260903101551 | 71 | 274 | 0.0 | 0.0 | 0.00 | 0.32 | 0.00 | 97 | 1015.4 |
| 20260903101445 | 71 | 274 | 0.0 | 0.0 | 0.00 | 0.32 | 0.00 | 97 | 1015.3 |
| 20260903101125 | 71 | 274 | 0.0 | 0.0 | 0.00 | 0.32 | 0.00 | 97 | 1015.4 |
| 20260903101023 | 71 | 274 | 0.0 | 0.0 | 0.00 | 0.32 | 0.00 | 97 | 1015.4 |
| 20260903100920 | 71 | 274 | 0.0 | 0.0 | 0.00 | 0.32 | 0.00 | 97 | 1015.4 |
| 20260903100817 | 71 | 274 | 0.0 | 0.0 | 0.00 | 0.32 | 0.00 | 97 | 1015.4 |
| 20260903100713 | 71 | 274 | 0.0 | 0.0 | 0.00 | 0.32 | 0.00 | 97 | 1015.4 |
| 20260903100611 | 71 | 274 | 0.0 | 0.0 | 0.00 | 0.32 | 0.00 | 97 | 1015.4 |
| 20260903100503 | 71 | 274 | 0.0 | 0.0 | 0.00 | 0.32 | 0.00 | 97 | 1015.4 |
| 20260903100401 | 71 | 274 | 0.0 | 0.0 | 0.00 | 0.32 | 0.00 | 97 | 1015.3 |
| 20260903100258 | 71 | 274 | 0.0 | 0.0 | 0.00 | 0.32 | 0.00 | 97 | 1015.4 |
| 20260903100151 | 71 | 274 | 0.0 | 0.0 | 0.00 | 0.32 | 0.00 | 97 | 1015.4 |
| 20260903100048 | 71 | 274 | 0.0 | 0.0 | 0.00 | 0.32 | 0.00 | 97 | 1015.4 |
| 20260903095726 | 71 | 274 | 0.0 | 0.0 | 0.00 | 0.32 | 0.00 | 97 | 1015.5 |
| 20260903095620 | 71 | 274 | 0.0 | 0.0 | 0.00 | 0.32 | 0.00 | 97 | 1015.4 |
| 20260903095512 | 71 | 274 | 0.0 | 0.0 | 0.00 | 0.32 | 0.00 | 97 | 1015.5 |
| 20260903095148 | 71 | 274 | 0.0 | 0.0 | 0.00 | 0.32 | 0.00 | 97 | 1015.5 |
| 20260903095041 | 71 | 274 | 0.0 | 0.0 | 0.00 | 0.32 | 0.00 | 97 | 1015.5 |
| 20260903094936 | 71 | 274 | 0.0 | 0.0 | 0.00 | 0.32 | 0.00 | 97 | 1015.5 |
| 20260903094831 | 71 | 274 | 0.0 | 0.0 | 0.00 | 0.32 | 0.00 | 97 | 1015.5 |
| 20260903094728 | 71 | 274 | 0.0 | 0.0 | 0.00 | 0.32 | 0.00 | 97 | 1015.5 |
| 20260903094621 | 71 | 274 | 0.0 | 0.0 | 0.00 | 0.32 | 0.00 | 97 | 1015.5 |
| 20260903094515 | 71 | 274 | 0.0 | 0.0 | 0.00 | 0.32 | 0.00 | 97 | 1015.5 |
| 20260903094413 | 71 | 274 | 0.0 | 0.0 | 0.00 | 0.32 | 0.00 | 97 | 1015.5 |
| 20260903094311 | 71 | 274 | 0.0 | 0.0 | 0.00 | 0.32 | 0.00 | 97 | 1015.5 |
| 20260903094207 | 71 | 274 | 0.0 | 0.0 | 0.00 | 0.32 | 0.00 | 97 | 1015.5 |
| 20260903094100 | 71 | 274 | 0.0 | 0.0 | 0.00 | 0.32 | 0.00 | 97 | 1015.5 |
| 20260903093953 | 71 | 274 | 0.0 | 0.0 | 0.00 | 0.32 | 0.00 | 97 | 1015.6 |
| 20260903093849 | 71 | 274 | 0.0 | 0.0 | 0.00 | 0.32 | 0.00 | 97 | 1015.5 |
| 20260903093748 | 71 | 274 | 0.0 | 0.0 | 0.00 | 0.32 | 0.00 | 97 | 1015.5 |
| 20260903093644 | 71 | 274 | 0.0 | 0.0 | 0.00 | 0.32 | 0.00 | 97 | 1015.6 |
| 20260903093322 | 71 | 274 | 0.0 | 0.0 | 0.00 | 0.32 | 0.00 | 97 | 1015.5 |
| 20260903093220 | 71 | 274 | 0.0 | 0.0 | 0.00 | 0.32 | 0.00 | 97 | 1015.5 |
| 20260903093118 | 71 | 274 | 0.0 | 0.0 | 0.00 | 0.32 | 0.00 | 97 | 1015.5 |
| 20260903093011 | 71 | 274 | 0.0 | 0.0 | 0.00 | 0.32 | 0.00 | 97 | 1015.5 |
| 20260903092903 | 71 | 274 | 0.0 | 0.0 | 0.00 | 0.32 | 0.00 | 97 | 1015.5 |
| 20260903092755 | 71 | 274 | 0.0 | 0.0 | 0.00 | 0.32 | 0.00 | 97 | 1015.5 |
| 20260903092648 | 71 | 274 | 0.0 | 0.0 | 0.00 | 0.32 | 0.00 | 97 | 1015.6 |
| 20260903092541 | 71 | 274 | 0.0 | 0.0 | 0.00 | 0.32 | 0.00 | 97 | 1015.6 |
| 20260903092439 | 71 | 274 | 0.0 | 0.0 | 0.00 | 0.32 | 0.00 | 97 | 1015.6 |
| 20260903092331 | 71 | 274 | 0.0 | 0.0 | 0.00 | 0.32 | 0.00 | 97 | 1015.6 |
| 20260903092225 | 71 | 274 | 0.0 | 0.0 | 0.00 | 0.32 | 0.00 | 97 | 1015.6 |
| 20260903092123 | 71 | 274 | 0.0 | 0.0 | 0.00 | 0.32 | 0.00 | 97 | 1015.6 |
| 20260903092020 | 71 | 274 | 0.0 | 0.0 | 0.00 | 0.32 | 0.00 | 97 | 1015.7 |
| 20260903091913 | 71 | 274 | 0.0 | 0.0 | 0.00 | 0.32 | 0.00 | 97 | 1015.7 |
| 20260903091807 | 71 | 274 | 0.0 | 0.0 | 0.00 | 0.32 | 0.00 | 97 | 1015.6 |
| 20260903091701 | 71 | 274 | 0.0 | 0.0 | 0.00 | 0.32 | 0.00 | 97 | 1015.6 |
| 20260903091556 | 71 | 307 | 0.0 | 0.0 | 0.00 | 0.32 | 0.00 | 97 | 1015.6 |
| 20260903091450 | 71 | 307 | 0.0 | 1.0 | 0.00 | 0.32 | 0.00 | 97 | 1015.6 |
| 20260903091346 | 71 | 307 | 0.0 | 1.0 | 0.00 | 0.32 | 0.00 | 97 | 1015.6 |
| 20260903091243 | 71 | 247 | 0.0 | 0.0 | 0.00 | 0.32 | 0.00 | 97 | 1015.6 |
| 20260903090916 | 71 | 247 | 0.0 | 0.0 | 0.00 | 0.32 | 0.00 | 97 | 1015.6 |
| 20260903090811 | 71 | 247 | 0.0 | 0.0 | 0.00 | 0.32 | 0.00 | 97 | 1015.6 |
| 20260903090709 | 71 | 247 | 0.0 | 0.0 | 0.00 | 0.32 | 0.00 | 97 | 1015.5 |
| 20260903090345 | 71 | 247 | 0.0 | 0.0 | 0.00 | 0.32 | 0.00 | 97 | 1015.6 |
| 20260903090238 | 71 | 247 | 0.0 | 0.0 | 0.00 | 0.32 | 0.00 | 97 | 1015.6 |
| 20260903090130 | 71 | 247 | 0.0 | 0.0 | 0.00 | 0.32 | 0.00 | 97 | 1015.6 |
| 20260903085802 | 71 | 247 | 0.0 | 0.0 | 0.00 | 0.32 | 0.00 | 97 | 1015.6 |
| 20260903085655 | 71 | 247 | 0.0 | 0.0 | 0.00 | 0.32 | 0.00 | 97 | 1015.6 |
| 20260903085549 | 71 | 247 | 0.0 | 0.0 | 0.00 | 0.32 | 0.00 | 97 | 1015.6 |
| 20260903085443 | 71 | 247 | 0.0 | 0.0 | 0.00 | 0.32 | 0.00 | 97 | 1015.6 |
| 20260903085337 | 71 | 247 | 0.0 | 0.0 | 0.00 | 0.32 | 0.00 | 97 | 1015.6 |
| 20260903085234 | 71 | 247 | 0.0 | 0.0 | 0.00 | 0.32 | 0.00 | 97 | 1015.6 |
| 20260903085131 | 71 | 247 | 0.0 | 0.0 | 0.00 | 0.32 | 0.00 | 97 | 1015.6 |
| 20260903085024 | 71 | 247 | 0.0 | 0.0 | 0.00 | 0.32 | 0.00 | 97 | 1015.5 |
| 20260903084921 | 71 | 247 | 0.0 | 0.0 | 0.00 | 0.32 | 0.00 | 97 | 1015.6 |
| 20260903084818 | 71 | 247 | 0.0 | 0.0 | 0.00 | 0.32 | 0.00 | 97 | 1015.6 |
| 20260903084711 | 71 | 247 | 0.0 | 0.0 | 0.00 | 0.32 | 0.00 | 97 | 1015.5 |
| 20260903084606 | 71 | 247 | 0.0 | 0.0 | 0.00 | 0.32 | 0.00 | 97 | 1015.6 |
| 20260903084503 | 71 | 247 | 0.0 | 0.0 | 0.00 | 0.32 | 0.00 | 97 | 1015.5 |
| 20260903084358 | 71 | 247 | 0.0 | 0.0 | 0.00 | 0.32 | 0.00 | 97 | 1015.5 |
| 20260903084255 | 71 | 247 | 0.0 | 0.0 | 0.00 | 0.32 | 0.00 | 97 | 1015.5 |
| 20260903084150 | 71 | 247 | 0.0 | 0.0 | 0.00 | 0.32 | 0.00 | 97 | 1015.5 |
| 20260903084047 | 71 | 247 | 0.0 | 0.0 | 0.00 | 0.32 | 0.00 | 97 | 1015.5 |
| 20260903083943 | 71 | 247 | 0.0 | 0.0 | 0.00 | 0.32 | 0.00 | 97 | 1015.5 |
| 20260903083838 | 71 | 247 | 0.0 | 0.0 | 0.00 | 0.32 | 0.00 | 97 | 1015.5 |
| 20260903083512 | 71 | 247 | 0.0 | 0.0 | 0.00 | 0.32 | 0.00 | 97 | 1015.6 |
| 20260903083407 | 71 | 247 | 0.0 | 0.0 | 0.00 | 0.32 | 0.00 | 97 | 1015.5 |
| 20260903083303 | 71 | 247 | 0.0 | 0.0 | 0.00 | 0.32 | 0.00 | 97 | 1015.5 |
| 20260903083156 | 71 | 247 | 0.0 | 0.0 | 0.00 | 0.32 | 0.00 | 97 | 1015.5 |
| 20260903083050 | 71 | 247 | 0.0 | 0.0 | 0.00 | 0.32 | 0.00 | 97 | 1015.5 |
| 20260903082943 | 71 | 247 | 0.0 | 0.0 | 0.00 | 0.32 | 0.00 | 97 | 1015.6 |
| 20260903082835 | 71 | 247 | 0.0 | 0.0 | 0.00 | 0.32 | 0.00 | 97 | 1015.6 |
| 20260903082733 | 71 | 247 | 0.0 | 0.0 | 0.00 | 0.32 | 0.00 | 97 | 1015.6 |
| 20260903082625 | 71 | 247 | 0.0 | 0.0 | 0.00 | 0.32 | 0.00 | 97 | 1015.6 |
| 20260903082520 | 71 | 247 | 0.0 | 0.0 | 0.00 | 0.32 | 0.00 | 97 | 1015.6 |
| 20260903082411 | 71 | 247 | 0.0 | 0.0 | 0.00 | 0.32 | 0.00 | 97 | 1015.6 |
| 20260903082306 | 71 | 247 | 0.0 | 0.0 | 0.00 | 0.32 | 0.00 | 97 | 1015.7 |
| 20260903082202 | 71 | 247 | 0.0 | 0.0 | 0.00 | 0.32 | 0.00 | 97 | 1015.6 |
| 20260903082058 | 71 | 247 | 0.0 | 0.0 | 0.00 | 0.32 | 0.00 | 97 | 1015.6 |
| 20260903081956 | 71 | 247 | 0.0 | 0.0 | 0.00 | 0.32 | 0.00 | 97 | 1015.6 |
| 20260903081852 | 71 | 247 | 0.0 | 0.0 | 0.00 | 0.32 | 0.00 | 97 | 1015.6 |
| 20260903081748 | 71 | 247 | 0.0 | 0.0 | 0.00 | 0.32 | 0.00 | 97 | 1015.6 |
| 20260903081645 | 71 | 247 | 0.0 | 0.0 | 0.00 | 0.32 | 0.00 | 97 | 1015.6 |
| 20260903081541 | 71 | 247 | 0.0 | 0.0 | 0.00 | 0.32 | 0.00 | 97 | 1015.6 |
| 20260903081435 | 71 | 247 | 0.0 | 0.0 | 0.00 | 0.32 | 0.00 | 97 | 1015.6 |
| 20260903081110 | 71 | 247 | 0.0 | 0.0 | 0.00 | 0.32 | 0.00 | 97 | 1015.6 |
| 20260903081005 | 71 | 247 | 0.0 | 0.0 | 0.00 | 0.32 | 0.00 | 97 | 1015.6 |
| 20260903080640 | 71 | 247 | 0.0 | 0.0 | 0.00 | 0.32 | 0.00 | 97 | 1015.6 |
| 20260903080537 | 71 | 247 | 0.0 | 0.0 | 0.00 | 0.32 | 0.00 | 97 | 1015.6 |
| 20260903080434 | 71 | 247 | 0.0 | 0.0 | 0.00 | 0.32 | 0.00 | 97 | 1015.7 |
| 20260903080330 | 71 | 247 | 0.0 | 0.0 | 0.00 | 0.32 | 0.00 | 97 | 1015.6 |
| 20260903080227 | 71 | 247 | 0.0 | 0.0 | 0.00 | 0.32 | 0.00 | 97 | 1015.7 |
| 20260903075903 | 71 | 247 | 0.0 | 0.0 | 0.00 | 0.32 | 0.00 | 97 | 1015.6 |
| 20260903075755 | 71 | 247 | 0.0 | 0.0 | 0.00 | 0.32 | 0.00 | 97 | 1015.6 |
| 20260903075652 | 71 | 247 | 0.0 | 0.0 | 0.00 | 0.32 | 0.00 | 97 | 1015.6 |
| 20260903075323 | 71 | 247 | 0.0 | 0.0 | 0.00 | 0.32 | 0.00 | 97 | 1015.6 |
| 20260903074959 | 71 | 247 | 0.0 | 0.0 | 0.00 | 0.32 | 0.00 | 97 | 1015.5 |
| 20260903074852 | 71 | 247 | 0.0 | 0.0 | 0.00 | 0.32 | 0.00 | 97 | 1015.5 |
| 20260903074745 | 71 | 247 | 0.0 | 0.0 | 0.00 | 0.32 | 0.00 | 97 | 1015.5 |
| 20260903074419 | 71 | 247 | 0.0 | 0.0 | 0.00 | 0.32 | 0.00 | 97 | 1015.5 |
| 20260903074313 | 71 | 247 | 0.0 | 0.0 | 0.00 | 0.32 | 0.00 | 97 | 1015.5 |
| 20260903074205 | 71 | 247 | 0.0 | 0.0 | 0.00 | 0.32 | 0.00 | 97 | 1015.5 |
| 20260903074100 | 71 | 247 | 0.0 | 0.0 | 0.00 | 0.32 | 0.00 | 97 | 1015.5 |
| 20260903073952 | 71 | 247 | 0.0 | 0.0 | 0.00 | 0.32 | 0.00 | 97 | 1015.4 |
| 20260903073846 | 71 | 247 | 0.0 | 0.0 | 0.00 | 0.32 | 0.00 | 97 | 1015.4 |
| 20260903073743 | 71 | 247 | 0.0 | 0.0 | 0.00 | 0.32 | 0.00 | 97 | 1015.3 |
| 20260903073639 | 71 | 247 | 0.0 | 0.0 | 0.00 | 0.32 | 0.00 | 97 | 1015.4 |
| 20260903073533 | 71 | 247 | 0.0 | 0.0 | 0.00 | 0.32 | 0.00 | 97 | 1015.4 |
| 20260903073429 | 71 | 247 | 0.0 | 0.0 | 0.00 | 0.32 | 0.00 | 97 | 1015.4 |
| 20260903073325 | 71 | 247 | 0.0 | 0.0 | 0.00 | 0.32 | 0.00 | 97 | 1015.3 |
| 20260903073217 | 71 | 214 | 0.0 | 0.0 | 0.00 | 0.32 | 0.00 | 97 | 1015.3 |
| 20260903073114 | 71 | 168 | 0.0 | 0.0 | 0.00 | 0.32 | 0.00 | 97 | 1015.3 |
| 20260903073012 | 71 | 168 | 0.0 | 0.0 | 0.00 | 0.32 | 0.00 | 97 | 1015.3 |
| 20260903072910 | 71 | 168 | 0.0 | 0.0 | 0.00 | 0.32 | 0.00 | 97 | 1015.2 |
| 20260903072548 | 71 | 168 | 0.0 | 0.0 | 0.00 | 0.32 | 0.00 | 97 | 1015.2 |
| 20260903072440 | 71 | 168 | 0.0 | 0.0 | 0.00 | 0.32 | 0.00 | 97 | 1015.1 |
| 20260903072333 | 71 | 168 | 0.0 | 0.0 | 0.00 | 0.32 | 0.00 | 96 | 1015.1 |
| 20260903072224 | 71 | 168 | 0.0 | 0.0 | 0.00 | 0.32 | 0.00 | 97 | 1015.1 |
| 20260903072120 | 71 | 168 | 0.0 | 0.0 | 0.00 | 0.32 | 0.00 | 96 | 1015.0 |
| 20260903072016 | 71 | 168 | 0.0 | 0.0 | 0.00 | 0.32 | 0.00 | 97 | 1015.1 |
| 20260903071914 | 71 | 168 | 0.0 | 0.0 | 0.00 | 0.32 | 0.00 | 97 | 1015.1 |
| 20260903071809 | 71 | 168 | 0.0 | 0.0 | 0.00 | 0.32 | 0.00 | 97 | 1015.1 |
| 20260903071707 | 71 | 168 | 0.0 | 0.0 | 0.00 | 0.32 | 0.00 | 97 | 1015.1 |
| 20260903071602 | 71 | 168 | 0.0 | 0.0 | 0.00 | 0.32 | 0.00 | 97 | 1015.2 |
| 20260903071457 | 71 | 168 | 0.0 | 0.0 | 0.00 | 0.32 | 0.00 | 97 | 1015.1 |
| 20260903071352 | 71 | 168 | 0.0 | 0.0 | 0.00 | 0.32 | 0.00 | 97 | 1015.2 |
| 20260903071246 | 71 | 168 | 0.0 | 0.0 | 0.00 | 0.32 | 0.00 | 97 | 1015.2 |
| 20260903071144 | 71 | 168 | 0.0 | 0.0 | 0.00 | 0.32 | 0.00 | 96 | 1015.2 |
| 20260903071040 | 71 | 168 | 0.0 | 0.0 | 0.00 | 0.32 | 0.00 | 97 | 1015.2 |
| 20260903070936 | 71 | 168 | 0.0 | 0.0 | 0.00 | 0.32 | 0.00 | 97 | 1015.2 |
| 20260903070833 | 71 | 168 | 0.0 | 0.0 | 0.00 | 0.32 | 0.00 | 97 | 1015.1 |
| 20260903070030 | 71 | 168 | 0.0 | 0.0 | 0.00 | 0.32 | 0.00 | 97 | 1015.1 |
| 20260903065923 | 71 | 168 | 0.0 | 0.0 | 0.00 | 0.32 | 0.00 | 96 | 1015.1 |
| 20260903065818 | 71 | 168 | 0.0 | 0.0 | 0.00 | 0.32 | 0.00 | 97 | 1015.1 |
| 20260903065454 | 71 | 168 | 0.0 | 0.0 | 0.00 | 0.32 | 0.00 | 97 | 1015.0 |
| 20260903065347 | 71 | 168 | 0.0 | 0.0 | 0.00 | 0.32 | 0.00 | 96 | 1015.0 |
| 20260903065245 | 71 | 168 | 0.0 | 0.0 | 0.00 | 0.32 | 0.00 | 96 | 1015.0 |
| 20260903065144 | 71 | 168 | 0.0 | 0.0 | 0.00 | 0.32 | 0.00 | 96 | 1015.1 |
| 20260903065040 | 71 | 168 | 0.0 | 0.0 | 0.00 | 0.32 | 0.00 | 97 | 1015.1 |
| 20260903064936 | 71 | 168 | 0.0 | 0.0 | 0.00 | 0.32 | 0.00 | 96 | 1015.1 |
| 20260903064831 | 71 | 168 | 0.0 | 0.0 | 0.00 | 0.32 | 0.00 | 96 | 1015.1 |
| 20260903064726 | 71 | 168 | 0.0 | 0.0 | 0.00 | 0.32 | 0.00 | 96 | 1015.1 |
| 20260903064623 | 71 | 168 | 0.0 | 0.0 | 0.00 | 0.32 | 0.00 | 96 | 1015.1 |
| 20260903064516 | 71 | 168 | 0.0 | 0.0 | 0.00 | 0.32 | 0.00 | 97 | 1015.1 |
| 20260903064412 | 71 | 168 | 0.0 | 1.0 | 0.00 | 0.32 | 0.00 | 96 | 1015.1 |
| 20260903064306 | 71 | 168 | 0.0 | 1.0 | 0.00 | 0.32 | 0.00 | 96 | 1015.1 |
| 20260903064203 | 71 | 168 | 0.0 | 1.0 | 0.00 | 0.32 | 0.00 | 96 | 1015.1 |
| 20260903064100 | 71 | 168 | 0.0 | 1.0 | 0.00 | 0.32 | 0.00 | 96 | 1015.1 |
| 20260903063954 | 71 | 168 | 0.0 | 1.0 | 0.00 | 0.32 | 0.00 | 96 | 1015.0 |
| 20260903063852 | 71 | 168 | 0.0 | 1.0 | 0.00 | 0.32 | 0.00 | 96 | 1015.0 |
| 20260903063745 | 71 | 168 | 0.0 | 1.0 | 0.00 | 0.32 | 0.00 | 96 | 1015.0 |
| 20260903063638 | 71 | 168 | 0.0 | 1.0 | 0.00 | 0.32 | 0.00 | 96 | 1015.0 |
| 20260903063536 | 71 | 168 | 0.0 | 0.0 | 0.00 | 0.32 | 0.00 | 96 | 1015.0 |
| 20260903063429 | 71 | 168 | 0.0 | 0.0 | 0.00 | 0.32 | 0.00 | 96 | 1015.1 |
| 20260903063326 | 71 | 168 | 0.0 | 0.0 | 0.00 | 0.32 | 0.00 | 96 | 1015.1 |
| 20260903063001 | 71 | 168 | 0.0 | 0.0 | 0.00 | 0.32 | 0.00 | 96 | 1015.2 |
| 20260903062854 | 71 | 168 | 0.0 | 0.0 | 0.00 | 0.32 | 0.00 | 96 | 1015.3 |
| 20260903062749 | 71 | 168 | 0.0 | 0.0 | 0.00 | 0.32 | 0.00 | 96 | 1015.3 |
| 20260903062643 | 71 | 168 | 0.0 | 0.0 | 0.00 | 0.32 | 0.00 | 96 | 1015.3 |
| 20260903062535 | 71 | 168 | 0.0 | 0.0 | 0.00 | 0.32 | 0.00 | 96 | 1015.3 |
| 20260903062432 | 71 | 168 | 0.0 | 0.0 | 0.00 | 0.32 | 0.00 | 96 | 1015.2 |
| 20260903062330 | 71 | 168 | 0.0 | 0.0 | 0.00 | 0.32 | 0.00 | 96 | 1015.3 |
| 20260903062226 | 71 | 168 | 0.0 | 0.0 | 0.00 | 0.32 | 0.00 | 96 | 1015.2 |
| 20260903062121 | 71 | 168 | 0.0 | 1.0 | 0.00 | 0.32 | 0.00 | 96 | 1015.2 |
| 20260903061536 | 71 | 168 | 0.0 | 1.0 | 0.00 | 0.32 | 0.00 | 96 | 1015.3 |
| 20260903061429 | 71 | 168 | 0.0 | 1.0 | 0.00 | 0.32 | 0.00 | 96 | 1015.3 |
| 20260903061327 | 71 | 168 | 0.0 | 1.0 | 0.00 | 0.32 | 0.00 | 96 | 1015.4 |
| 20260903061220 | 71 | 168 | 0.0 | 1.0 | 0.00 | 0.32 | 0.00 | 96 | 1015.4 |
| 20260903061115 | 71 | 168 | 0.0 | 0.0 | 0.00 | 0.32 | 0.00 | 96 | 1015.4 |
| 20260903061011 | 71 | 168 | 0.0 | 0.0 | 0.00 | 0.32 | 0.00 | 96 | 1015.4 |
| 20260903060648 | 71 | 168 | 0.0 | 1.0 | 0.00 | 0.32 | 0.00 | 96 | 1015.5 |
| 20260903060320 | 71 | 168 | 0.0 | 1.0 | 0.00 | 0.32 | 0.00 | 96 | 1015.5 |
| 20260903060216 | 71 | 168 | 0.0 | 1.0 | 0.00 | 0.32 | 0.00 | 96 | 1015.5 |
| 20260903060113 | 71 | 168 | 0.0 | 1.0 | 0.00 | 0.32 | 0.00 | 96 | 1015.5 |
| 20260903055747 | 71 | 168 | 0.0 | 0.0 | 0.00 | 0.32 | 0.00 | 96 | 1015.7 |
| 20260903055645 | 71 | 168 | 0.0 | 0.0 | 0.00 | 0.32 | 0.00 | 96 | 1015.7 |
| 20260903055540 | 71 | 168 | 0.0 | 0.0 | 0.00 | 0.32 | 0.00 | 96 | 1015.7 |
| 20260903055217 | 71 | 168 | 0.0 | 0.0 | 0.00 | 0.32 | 0.00 | 96 | 1015.8 |
| 20260903054852 | 71 | 168 | 0.0 | 0.0 | 0.00 | 0.32 | 0.00 | 96 | 1015.7 |
| 20260903054524 | 71 | 168 | 0.0 | 0.0 | 0.00 | 0.32 | 0.00 | 96 | 1015.9 |
| 20260903054419 | 71 | 168 | 0.0 | 0.0 | 0.00 | 0.32 | 0.00 | 96 | 1015.9 |
| 20260903054316 | 71 | 168 | 0.0 | 0.0 | 0.00 | 0.32 | 0.00 | 96 | 1015.9 |
| 20260903054211 | 71 | 168 | 0.0 | 0.0 | 0.00 | 0.32 | 0.00 | 96 | 1016.0 |
| 20260903054109 | 71 | 168 | 0.0 | 0.0 | 0.00 | 0.32 | 0.00 | 96 | 1016.0 |
| 20260903054001 | 71 | 168 | 0.0 | 0.0 | 0.00 | 0.32 | 0.00 | 96 | 1016.0 |
| 20260903053856 | 71 | 168 | 0.0 | 0.0 | 0.00 | 0.32 | 0.00 | 96 | 1016.0 |
| 20260903053753 | 71 | 168 | 0.0 | 0.0 | 0.00 | 0.32 | 0.00 | 96 | 1016.0 |
| 20260903053428 | 71 | 168 | 0.0 | 0.0 | 0.00 | 0.32 | 0.00 | 96 | 1016.0 |
| 20260903053322 | 71 | 168 | 0.0 | 0.0 | 0.00 | 0.32 | 0.00 | 96 | 1016.0 |
| 20260903053215 | 71 | 168 | 0.0 | 0.0 | 0.00 | 0.32 | 0.00 | 96 | 1016.0 |
| 20260903052852 | 71 | 168 | 0.0 | 0.0 | 0.00 | 0.32 | 0.00 | 96 | 1015.9 |
| 20260903052748 | 71 | 168 | 0.0 | 0.0 | 0.00 | 0.32 | 0.00 | 96 | 1015.9 |
| 20260903052644 | 71 | 168 | 0.0 | 0.0 | 0.00 | 0.32 | 0.00 | 96 | 1015.8 |